Wetterdaten: Freitag, 10.03.2017
Datum Zeit Temp. Aussen Temp. o. S. +5cm Feuchte Auss BlattFeu 1 Luftdruck Regen Sonnenschein Regendauer Solar Windben Empfang
10.03.2017 00:00 6,6 C 6,1 C 4,4 C 88 % 0 lf 1024,1 hPa 0,0 l/m 0 min 0 min 0 W/m 12,6 km/h (3 Bft) 78,72 %
10.03.2017 00:02 6,6 C 6,1 C 3,9 C 88 % 0 lf 1024,1 hPa 0,0 l/m 0 min 0 min 0 W/m 10,5 km/h (2 Bft) 89,47 %
10.03.2017 00:05 6,6 C 5,6 C 3,9 C 88 % 0 lf 1024,2 hPa 0,0 l/m 0 min 0 min 0 W/m 14,6 km/h (3 Bft) 89,74 %
10.03.2017 00:08 6,5 C 5,6 C 3,9 C 88 % 0 lf 1024,3 hPa 0,0 l/m 0 min 0 min 0 W/m 12,6 km/h (3 Bft) 89,66 %
10.03.2017 00:10 6,4 C 5,6 C 3,9 C 88 % 0 lf 1024,3 hPa 0,0 l/m 0 min 0 min 0 W/m 12,6 km/h (3 Bft) 89,36 %
10.03.2017 00:12 6,4 C 5,6 C 3,9 C 88 % 0 lf 1024,3 hPa 0,0 l/m 0 min 0 min 0 W/m 10,5 km/h (2 Bft) 91,49 %
10.03.2017 00:14 6,4 C 5,0 C 3,3 C 88 % 0 lf 1024,4 hPa 0,0 l/m 0 min 0 min 0 W/m 10,5 km/h (2 Bft) 91,49 %
10.03.2017 00:16 6,4 C 5,0 C 3,3 C 88 % 0 lf 1024,4 hPa 0,0 l/m 0 min 0 min 0 W/m 8,4 km/h (2 Bft) 91,38 %
10.03.2017 00:18 6,3 C 5,0 C 3,3 C 88 % 0 lf 1024,4 hPa 0,0 l/m 0 min 0 min 0 W/m 8,4 km/h (2 Bft) 89,36 %
10.03.2017 00:20 6,3 C 5,0 C 3,3 C 88 % 0 lf 1024,4 hPa 0,0 l/m 0 min 0 min 2 W/m 6,3 km/h (2 Bft) 91,49 %
10.03.2017 00:22 6,3 C 5,0 C 3,3 C 88 % 0 lf 1024,4 hPa 0,0 l/m 0 min 0 min 0 W/m 6,3 km/h (2 Bft) 88,57 %
10.03.2017 00:24 6,2 C 5,0 C 2,8 C 88 % 0 lf 1024,5 hPa 0,0 l/m 0 min 0 min 0 W/m 6,3 km/h (2 Bft) 91,49 %
10.03.2017 00:26 6,2 C 5,0 C 2,8 C 88 % 0 lf 1024,6 hPa 0,0 l/m 0 min 0 min 0 W/m 8,4 km/h (2 Bft) 91,49 %
10.03.2017 00:28 6,2 C 5,0 C 2,8 C 88 % 0 lf 1024,6 hPa 0,0 l/m 0 min 0 min 0 W/m 12,6 km/h (3 Bft) 93,62 %
10.03.2017 00:30 6,1 C 4,4 C 2,8 C 88 % 0 lf 1024,7 hPa 0,0 l/m 0 min 0 min 0 W/m 12,6 km/h (3 Bft) 98,28 %
10.03.2017 00:32 6,1 C 4,4 C 2,8 C 88 % 0 lf 1024,7 hPa 0,0 l/m 0 min 0 min 0 W/m 8,4 km/h (2 Bft) 97,87 %
10.03.2017 00:34 6,1 C 5,0 C 2,8 C 88 % 0 lf 1024,7 hPa 0,0 l/m 0 min 0 min 0 W/m 12,6 km/h (3 Bft) 88,57 %
10.03.2017 00:36 6,0 C 4,4 C 2,8 C 88 % 0 lf 1024,7 hPa 0,0 l/m 0 min 0 min 0 W/m 8,4 km/h (2 Bft) 96,61 %
10.03.2017 00:38 5,9 C 4,4 C 2,8 C 88 % 0 lf 1024,7 hPa 0,0 l/m 0 min 0 min 0 W/m 8,4 km/h (2 Bft) 100,00 %
10.03.2017 00:40 5,9 C 4,4 C 2,8 C 88 % 0 lf 1024,8 hPa 0,0 l/m 0 min 0 min 0 W/m 12,6 km/h (3 Bft) 97,83 %
10.03.2017 00:42 5,9 C 5,0 C 2,8 C 88 % 0 lf 1024,9 hPa 0,0 l/m 0 min 0 min 0 W/m 10,5 km/h (2 Bft) 94,92 %
10.03.2017 00:44 5,9 C 5,0 C 3,3 C 88 % 0 lf 1024,9 hPa 0,0 l/m 0 min 0 min 0 W/m 12,6 km/h (3 Bft) 97,14 %
10.03.2017 00:46 5,8 C 5,0 C 3,3 C 88 % 0 lf 1024,9 hPa 0,0 l/m 0 min 0 min 0 W/m 10,5 km/h (2 Bft) 97,87 %
10.03.2017 00:48 5,8 C 5,6 C 3,3 C 89 % 0 lf 1024,9 hPa 0,0 l/m 0 min 0 min 0 W/m 10,5 km/h (2 Bft) 95,74 %
10.03.2017 00:50 5,8 C 5,6 C 3,9 C 89 % 0 lf 1024,9 hPa 0,0 l/m 0 min 0 min 0 W/m 6,3 km/h (2 Bft) 93,10 %
10.03.2017 00:52 5,8 C 5,6 C 3,9 C 89 % 0 lf 1025,0 hPa 0,0 l/m 0 min 0 min 0 W/m 10,5 km/h (2 Bft) 97,87 %
10.03.2017 00:54 5,7 C 5,6 C 3,9 C 89 % 0 lf 1025,0 hPa 0,0 l/m 0 min 0 min 0 W/m 6,3 km/h (2 Bft) 97,14 %
10.03.2017 00:56 5,8 C 5,6 C 4,4 C 89 % 0 lf 1025,1 hPa 0,0 l/m 0 min 0 min 0 W/m 14,6 km/h (3 Bft) 97,87 %
10.03.2017 00:58 5,8 C 5,6 C 4,4 C 89 % 0 lf 1025,2 hPa 0,0 l/m 0 min 0 min 0 W/m 12,6 km/h (3 Bft) 93,22 %
10.03.2017 01:00 5,8 C 6,1 C 4,4 C 89 % 0 lf 1025,3 hPa 0,0 l/m 0 min 0 min 0 W/m 16,7 km/h (3 Bft) 97,14 %
10.03.2017 01:02 5,8 C 6,1 C 4,4 C 90 % 0 lf 1025,3 hPa 0,0 l/m 0 min 0 min 0 W/m 16,7 km/h (3 Bft) 98,28 %
10.03.2017 01:04 5,7 C 6,1 C 4,4 C 90 % 0 lf 1025,3 hPa 0,0 l/m 0 min 0 min 0 W/m 16,7 km/h (3 Bft) 97,14 %
10.03.2017 01:06 5,8 C 6,1 C 4,4 C 90 % 0 lf 1025,3 hPa 0,0 l/m 0 min 0 min 0 W/m 16,7 km/h (3 Bft) 97,87 %
10.03.2017 01:08 5,8 C 6,1 C 4,4 C 90 % 0 lf 1025,4 hPa 0,0 l/m 0 min 0 min 0 W/m 12,6 km/h (3 Bft) 97,87 %
10.03.2017 01:10 5,8 C 6,1 C 4,4 C 90 % 0 lf 1025,4 hPa 0,0 l/m 0 min 0 min 0 W/m 20,9 km/h (4 Bft) 98,31 %
10.03.2017 01:12 5,8 C 6,1 C 4,4 C 90 % 0 lf 1025,5 hPa 0,0 l/m 0 min 0 min 0 W/m 14,6 km/h (3 Bft) 97,14 %
10.03.2017 01:14 5,8 C 6,1 C 4,4 C 90 % 0 lf 1025,5 hPa 0,0 l/m 0 min 0 min 0 W/m 10,5 km/h (2 Bft) 100,00 %
10.03.2017 01:16 5,8 C 6,1 C 4,4 C 90 % 0 lf 1025,5 hPa 0,0 l/m 0 min 0 min 0 W/m 14,6 km/h (3 Bft) 100,00 %
10.03.2017 01:18 5,8 C 6,1 C 4,4 C 90 % 0 lf 1025,5 hPa 0,0 l/m 0 min 0 min 0 W/m 16,7 km/h (3 Bft) 97,87 %
10.03.2017 01:20 5,8 C 6,1 C 4,4 C 90 % 0 lf 1025,5 hPa 0,0 l/m 0 min 0 min 0 W/m 12,6 km/h (3 Bft) 100,00 %
10.03.2017 01:22 5,8 C 6,1 C 4,4 C 90 % 0 lf 1025,6 hPa 0,0 l/m 0 min 0 min 0 W/m 16,7 km/h (3 Bft) 100,00 %
10.03.2017 01:24 5,8 C 6,1 C 4,4 C 90 % 0 lf 1025,5 hPa 0,0 l/m 0 min 0 min 0 W/m 10,5 km/h (2 Bft) 98,28 %
10.03.2017 01:26 5,8 C 6,1 C 4,4 C 90 % 0 lf 1025,6 hPa 0,0 l/m 0 min 0 min 0 W/m 14,6 km/h (3 Bft) 95,74 %
10.03.2017 01:28 5,8 C 6,1 C 4,4 C 90 % 0 lf 1025,6 hPa 0,0 l/m 0 min 0 min 0 W/m 14,6 km/h (3 Bft) 100,00 %
10.03.2017 01:30 5,8 C 6,1 C 4,4 C 90 % 0 lf 1025,6 hPa 0,0 l/m 0 min 0 min 0 W/m 10,5 km/h (2 Bft) 100,00 %
10.03.2017 01:32 5,8 C 6,1 C 4,4 C 90 % 0 lf 1025,6 hPa 0,0 l/m 0 min 0 min 0 W/m 14,6 km/h (3 Bft) 100,00 %
10.03.2017 01:34 5,8 C 6,1 C 4,4 C 90 % 0 lf 1025,6 hPa 0,0 l/m 0 min 0 min 0 W/m 12,6 km/h (3 Bft) 97,87 %
10.03.2017 01:36 5,8 C 6,1 C 4,4 C 90 % 0 lf 1025,7 hPa 0,0 l/m 0 min 0 min 0 W/m 16,7 km/h (3 Bft) 94,83 %
10.03.2017 01:38 5,8 C 6,1 C 4,4 C 90 % 0 lf 1025,7 hPa 0,0 l/m 0 min 0 min 0 W/m 10,5 km/h (2 Bft) 95,74 %
10.03.2017 01:40 5,8 C 6,1 C 4,4 C 90 % 0 lf 1025,7 hPa 0,0 l/m 0 min 0 min 0 W/m 10,5 km/h (2 Bft) 97,87 %
10.03.2017 01:42 5,8 C 6,1 C 4,4 C 90 % 0 lf 1025,7 hPa 0,0 l/m 0 min 0 min 0 W/m 10,5 km/h (2 Bft) 97,14 %
10.03.2017 01:44 5,8 C 6,1 C 4,4 C 90 % 0 lf 1025,7 hPa 0,0 l/m 0 min 0 min 0 W/m 8,4 km/h (2 Bft) 97,87 %
10.03.2017 01:46 5,8 C 6,1 C 4,4 C 90 % 0 lf 1025,7 hPa 0,0 l/m 0 min 0 min 0 W/m 10,5 km/h (2 Bft) 98,31 %
10.03.2017 01:48 5,8 C 6,1 C 4,4 C 90 % 0 lf 1025,7 hPa 0,0 l/m 0 min 0 min 0 W/m 8,4 km/h (2 Bft) 95,65 %
10.03.2017 01:50 5,8 C 6,1 C 4,4 C 90 % 0 lf 1025,7 hPa 0,0 l/m 0 min 0 min 0 W/m 10,5 km/h (2 Bft) 95,74 %
10.03.2017 01:52 5,8 C 6,1 C 4,4 C 90 % 0 lf 1025,7 hPa 0,0 l/m 0 min 0 min 0 W/m 8,4 km/h (2 Bft) 97,87 %
10.03.2017 01:54 5,8 C 6,1 C 4,4 C 90 % 0 lf 1025,8 hPa 0,0 l/m 0 min 0 min 0 W/m 10,5 km/h (2 Bft) 97,87 %
10.03.2017 01:56 5,8 C 6,1 C 4,4 C 90 % 0 lf 1025,8 hPa 0,0 l/m 0 min 0 min 0 W/m 10,5 km/h (2 Bft) 97,14 %
10.03.2017 01:58 5,8 C 6,1 C 4,4 C 90 % 0 lf 1025,8 hPa 0,0 l/m 0 min 0 min 0 W/m 8,4 km/h (2 Bft) 97,87 %
10.03.2017 02:00 5,8 C 6,1 C 4,4 C 90 % 0 lf 1025,9 hPa 0,0 l/m 0 min 0 min 0 W/m 10,5 km/h (2 Bft) 95,74 %
10.03.2017 02:02 5,8 C 6,1 C 4,4 C 90 % 0 lf 1025,8 hPa 0,0 l/m 0 min 0 min 0 W/m 10,5 km/h (2 Bft) 91,38 %
10.03.2017 02:04 5,8 C 6,1 C 4,4 C 90 % 0 lf 1025,8 hPa 0,0 l/m 0 min 0 min 0 W/m 10,5 km/h (2 Bft) 97,87 %
10.03.2017 02:06 5,8 C 6,1 C 4,4 C 90 % 0 lf 1025,8 hPa 0,0 l/m 0 min 0 min 0 W/m 10,5 km/h (2 Bft) 97,87 %
10.03.2017 02:08 5,8 C 6,1 C 4,4 C 90 % 0 lf 1025,8 hPa 0,0 l/m 0 min 0 min 0 W/m 6,3 km/h (2 Bft) 95,74 %
10.03.2017 02:10 5,8 C 6,1 C 4,4 C 90 % 0 lf 1025,9 hPa 0,0 l/m 0 min 0 min 0 W/m 8,4 km/h (2 Bft) 100,00 %
10.03.2017 02:12 5,8 C 6,1 C 4,4 C 90 % 0 lf 1025,8 hPa 0,0 l/m 0 min 0 min 0 W/m 10,5 km/h (2 Bft) 96,55 %
10.03.2017 02:14 5,8 C 6,1 C 4,4 C 90 % 0 lf 1025,9 hPa 0,0 l/m 0 min 0 min 0 W/m 10,5 km/h (2 Bft) 94,29 %
10.03.2017 02:16 5,8 C 6,1 C 4,4 C 90 % 0 lf 1025,9 hPa 0,0 l/m 0 min 0 min 0 W/m 8,4 km/h (2 Bft) 96,61 %
10.03.2017 02:18 5,8 C 6,1 C 4,4 C 90 % 0 lf 1025,9 hPa 0,0 l/m 0 min 0 min 0 W/m 8,4 km/h (2 Bft) 95,74 %
10.03.2017 02:20 5,8 C 6,1 C 4,4 C 90 % 0 lf 1025,9 hPa 0,0 l/m 0 min 0 min 0 W/m 8,4 km/h (2 Bft) 97,87 %
10.03.2017 02:22 5,8 C 6,1 C 4,4 C 90 % 0 lf 1025,9 hPa 0,0 l/m 0 min 0 min 0 W/m 8,4 km/h (2 Bft) 97,14 %
10.03.2017 02:24 5,8 C 6,1 C 4,4 C 90 % 0 lf 1025,9 hPa 0,0 l/m 0 min 0 min 0 W/m 10,5 km/h (2 Bft) 94,83 %
10.03.2017 02:26 5,8 C 6,1 C 4,4 C 90 % 0 lf 1025,9 hPa 0,0 l/m 0 min 0 min 0 W/m 12,6 km/h (3 Bft) 95,74 %
10.03.2017 02:28 5,8 C 6,1 C 4,4 C 90 % 0 lf 1025,9 hPa 0,0 l/m 0 min 0 min 0 W/m 8,4 km/h (2 Bft) 97,87 %
10.03.2017 02:30 5,8 C 6,1 C 4,4 C 90 % 0 lf 1025,9 hPa 0,0 l/m 0 min 0 min 0 W/m 6,3 km/h (2 Bft) 97,87 %
10.03.2017 02:32 5,8 C 5,6 C 4,4 C 90 % 0 lf 1025,9 hPa 0,0 l/m 0 min 0 min 0 W/m 6,3 km/h (2 Bft) 88,57 %
10.03.2017 02:34 5,8 C 5,6 C 4,4 C 90 % 0 lf 1025,9 hPa 0,0 l/m 0 min 0 min 0 W/m 4,2 km/h (1 Bft) 98,28 %
10.03.2017 02:36 5,8 C 5,6 C 4,4 C 90 % 0 lf 1025,9 hPa 0,0 l/m 0 min 0 min 0 W/m 2,1 km/h (1 Bft) 94,44 %
10.03.2017 02:38 5,8 C 5,6 C 4,4 C 90 % 0 lf 1026,0 hPa 0,0 l/m 0 min 0 min 0 W/m 6,3 km/h (2 Bft) 98,28 %
10.03.2017 02:40 5,8 C 5,6 C 4,4 C 90 % 0 lf 1026,1 hPa 0,0 l/m 0 min 0 min 0 W/m 4,2 km/h (1 Bft) 97,87 %
10.03.2017 02:42 5,8 C 5,6 C 4,4 C 90 % 0 lf 1026,1 hPa 0,0 l/m 0 min 0 min 0 W/m 4,2 km/h (1 Bft) 93,62 %
10.03.2017 02:44 5,8 C 5,6 C 4,4 C 90 % 0 lf 1026,0 hPa 0,0 l/m 0 min 0 min 0 W/m 4,2 km/h (1 Bft) 97,14 %
10.03.2017 02:46 5,8 C 5,6 C 4,4 C 90 % 0 lf 1026,0 hPa 0,0 l/m 0 min 0 min 0 W/m 4,2 km/h (1 Bft) 93,10 %
10.03.2017 02:48 5,8 C 5,6 C 3,9 C 90 % 0 lf 1025,9 hPa 0,0 l/m 0 min 0 min 0 W/m 4,2 km/h (1 Bft) 93,62 %
10.03.2017 02:50 5,8 C 5,6 C 3,9 C 90 % 0 lf 1026,0 hPa 0,0 l/m 0 min 0 min 0 W/m 8,4 km/h (2 Bft) 91,49 %
10.03.2017 02:52 5,8 C 5,6 C 3,9 C 90 % 0 lf 1026,0 hPa 0,0 l/m 0 min 0 min 0 W/m 10,5 km/h (2 Bft) 95,74 %
10.03.2017 02:54 5,7 C 5,6 C 3,9 C 90 % 0 lf 1026,0 hPa 0,0 l/m 0 min 0 min 0 W/m 8,4 km/h (2 Bft) 93,62 %
10.03.2017 02:56 5,7 C 5,6 C 3,9 C 90 % 0 lf 1026,0 hPa 0,0 l/m 0 min 0 min 0 W/m 8,4 km/h (2 Bft) 97,87 %
10.03.2017 02:58 5,7 C 5,6 C 3,9 C 90 % 0 lf 1026,1 hPa 0,0 l/m 0 min 0 min 0 W/m 14,6 km/h (3 Bft) 95,65 %
10.03.2017 03:00 5,7 C 5,6 C 3,9 C 90 % 0 lf 1026,1 hPa 0,0 l/m 0 min 0 min 0 W/m 12,6 km/h (3 Bft) 95,74 %
10.03.2017 03:02 5,7 C 5,6 C 3,9 C 90 % 0 lf 1026,1 hPa 0,0 l/m 0 min 0 min 0 W/m 8,4 km/h (2 Bft) 100,00 %
10.03.2017 03:04 5,7 C 5,6 C 3,9 C 90 % 0 lf 1026,1 hPa 0,0 l/m 0 min 0 min 0 W/m 8,4 km/h (2 Bft) 98,31 %
10.03.2017 03:06 5,7 C 5,6 C 3,9 C 90 % 0 lf 1026,1 hPa 0,0 l/m 0 min 0 min 0 W/m 6,3 km/h (2 Bft) 94,29 %
10.03.2017 03:08 5,6 C 5,6 C 3,9 C 90 % 0 lf 1026,0 hPa 0,0 l/m 0 min 0 min 0 W/m 6,3 km/h (2 Bft) 96,61 %
10.03.2017 03:10 5,6 C 5,6 C 3,9 C 90 % 0 lf 1026,1 hPa 0,0 l/m 0 min 0 min 0 W/m 6,3 km/h (2 Bft) 95,65 %
10.03.2017 03:12 5,6 C 5,0 C 3,9 C 90 % 0 lf 1026,1 hPa 0,0 l/m 0 min 0 min 0 W/m 6,3 km/h (2 Bft) 97,14 %
10.03.2017 03:14 5,6 C 5,0 C 3,9 C 90 % 0 lf 1026,1 hPa 0,0 l/m 0 min 0 min 0 W/m 8,4 km/h (2 Bft) 96,61 %
10.03.2017 03:16 5,6 C 5,0 C 3,3 C 90 % 0 lf 1026,1 hPa 0,0 l/m 0 min 0 min 0 W/m 6,3 km/h (2 Bft) 93,62 %
10.03.2017 03:18 5,6 C 5,0 C 3,3 C 90 % 0 lf 1026,1 hPa 0,0 l/m 0 min 0 min 0 W/m 6,3 km/h (2 Bft) 93,62 %
10.03.2017 03:20 5,6 C 5,0 C 3,3 C 90 % 0 lf 1026,1 hPa 0,0 l/m 0 min 0 min 0 W/m 6,3 km/h (2 Bft) 97,83 %
10.03.2017 03:22 5,5 C 5,0 C 3,3 C 90 % 0 lf 1026,1 hPa 0,0 l/m 0 min 0 min 0 W/m 6,3 km/h (2 Bft) 97,22 %
10.03.2017 03:24 5,5 C 5,0 C 3,3 C 90 % 0 lf 1026,1 hPa 0,0 l/m 0 min 0 min 0 W/m 8,4 km/h (2 Bft) 97,83 %
10.03.2017 03:26 5,5 C 5,0 C 3,3 C 89 % 0 lf 1026,1 hPa 0,0 l/m 0 min 0 min 0 W/m 4,2 km/h (1 Bft) 98,31 %
10.03.2017 03:28 5,5 C 5,0 C 3,3 C 89 % 0 lf 1026,1 hPa 0,0 l/m 0 min 0 min 0 W/m 4,2 km/h (1 Bft) 95,74 %
10.03.2017 03:30 5,4 C 5,0 C 3,3 C 89 % 0 lf 1026,1 hPa 0,0 l/m 0 min 0 min 0 W/m 6,3 km/h (2 Bft) 94,29 %
10.03.2017 03:32 5,4 C 4,4 C 2,8 C 89 % 0 lf 1026,1 hPa 0,0 l/m 0 min 0 min 0 W/m 4,2 km/h (1 Bft) 100,00 %
10.03.2017 03:34 5,4 C 5,0 C 2,8 C 89 % 0 lf 1026,2 hPa 0,0 l/m 0 min 0 min 0 W/m 4,2 km/h (1 Bft) 97,87 %
10.03.2017 03:36 5,4 C 5,0 C 3,3 C 89 % 0 lf 1026,1 hPa 0,0 l/m 0 min 0 min 0 W/m 10,5 km/h (2 Bft) 88,57 %
10.03.2017 03:38 5,4 C 5,0 C 3,3 C 89 % 0 lf 1026,1 hPa 0,0 l/m 0 min 0 min 0 W/m 4,2 km/h (1 Bft) 98,31 %
10.03.2017 03:40 5,4 C 5,0 C 3,3 C 89 % 0 lf 1026,1 hPa 0,0 l/m 0 min 0 min 0 W/m 6,3 km/h (2 Bft) 95,74 %
10.03.2017 03:42 5,3 C 5,0 C 3,3 C 89 % 0 lf 1026,2 hPa 0,0 l/m 0 min 0 min 0 W/m 4,2 km/h (1 Bft) 94,29 %
10.03.2017 03:44 5,3 C 5,0 C 3,3 C 89 % 0 lf 1026,1 hPa 0,0 l/m 0 min 0 min 0 W/m 4,2 km/h (1 Bft) 97,87 %
10.03.2017 03:46 5,3 C 5,0 C 3,3 C 89 % 0 lf 1026,1 hPa 0,0 l/m 0 min 0 min 0 W/m 6,3 km/h (2 Bft) 95,74 %
10.03.2017 03:48 5,3 C 5,0 C 3,3 C 89 % 0 lf 1026,1 hPa 0,0 l/m 0 min 0 min 0 W/m 2,1 km/h (1 Bft) 97,83 %
10.03.2017 03:50 5,3 C 5,0 C 3,3 C 89 % 0 lf 1026,2 hPa 0,0 l/m 0 min 0 min 0 W/m 4,2 km/h (1 Bft) 96,61 %
10.03.2017 03:52 5,3 C 5,0 C 3,3 C 89 % 0 lf 1026,2 hPa 0,0 l/m 0 min 0 min 0 W/m 4,2 km/h (1 Bft) 95,74 %
10.03.2017 03:54 5,2 C 5,0 C 3,3 C 90 % 0 lf 1026,2 hPa 0,0 l/m 0 min 0 min 0 W/m 6,3 km/h (2 Bft) 97,14 %
10.03.2017 03:56 5,2 C 5,0 C 3,3 C 90 % 0 lf 1026,2 hPa 0,0 l/m 0 min 0 min 0 W/m 4,2 km/h (1 Bft) 98,28 %
10.03.2017 03:58 5,2 C 5,0 C 3,3 C 90 % 0 lf 1026,2 hPa 0,0 l/m 0 min 0 min 0 W/m 2,1 km/h (1 Bft) 95,74 %
10.03.2017 04:00 5,2 C 5,0 C 3,3 C 90 % 0 lf 1026,2 hPa 0,0 l/m 0 min 0 min 0 W/m 6,3 km/h (2 Bft) 97,14 %
10.03.2017 04:02 5,2 C 5,0 C 3,3 C 90 % 0 lf 1026,2 hPa 0,0 l/m 0 min 0 min 0 W/m 4,2 km/h (1 Bft) 100,00 %
10.03.2017 04:04 5,2 C 5,0 C 3,3 C 90 % 0 lf 1026,2 hPa 0,0 l/m 0 min 0 min 0 W/m 6,3 km/h (2 Bft) 94,92 %
10.03.2017 04:06 5,2 C 5,0 C 3,3 C 90 % 0 lf 1026,3 hPa 0,0 l/m 0 min 0 min 0 W/m 6,3 km/h (2 Bft) 100,00 %
10.03.2017 04:08 5,2 C 5,0 C 3,3 C 90 % 0 lf 1026,3 hPa 0,0 l/m 0 min 0 min 0 W/m 2,1 km/h (1 Bft) 94,83 %
10.03.2017 04:10 5,2 C 5,0 C 3,3 C 90 % 0 lf 1026,3 hPa 0,0 l/m 0 min 0 min 0 W/m 4,2 km/h (1 Bft) 100,00 %
10.03.2017 04:12 5,2 C 5,0 C 3,3 C 90 % 0 lf 1026,4 hPa 0,0 l/m 0 min 0 min 0 W/m 6,3 km/h (2 Bft) 91,49 %
10.03.2017 04:14 5,2 C 5,0 C 3,3 C 90 % 0 lf 1026,3 hPa 0,0 l/m 0 min 0 min 0 W/m 4,2 km/h (1 Bft) 93,62 %
10.03.2017 04:16 5,2 C 5,0 C 3,3 C 90 % 0 lf 1026,3 hPa 0,0 l/m 0 min 0 min 0 W/m 6,3 km/h (2 Bft) 97,87 %
10.03.2017 04:18 5,1 C 5,0 C 3,3 C 90 % 0 lf 1026,3 hPa 0,0 l/m 0 min 0 min 0 W/m 6,3 km/h (2 Bft) 97,14 %
10.03.2017 04:20 5,1 C 5,0 C 3,3 C 90 % 0 lf 1026,3 hPa 0,0 l/m 0 min 0 min 0 W/m 4,2 km/h (1 Bft) 94,92 %
10.03.2017 04:22 5,1 C 5,0 C 3,3 C 90 % 0 lf 1026,3 hPa 0,0 l/m 0 min 0 min 0 W/m 4,2 km/h (1 Bft) 91,30 %
10.03.2017 04:24 5,1 C 5,0 C 3,3 C 90 % 0 lf 1026,4 hPa 0,0 l/m 0 min 0 min 0 W/m 4,2 km/h (1 Bft) 97,14 %
10.03.2017 04:26 5,1 C 5,0 C 3,3 C 90 % 0 lf 1026,5 hPa 0,0 l/m 0 min 0 min 0 W/m 4,2 km/h (1 Bft) 98,31 %
10.03.2017 04:28 5,1 C 5,0 C 3,3 C 90 % 0 lf 1026,4 hPa 0,0 l/m 0 min 0 min 0 W/m 4,2 km/h (1 Bft) 93,62 %
10.03.2017 04:30 5,1 C 5,0 C 3,3 C 90 % 0 lf 1026,5 hPa 0,0 l/m 0 min 0 min 0 W/m 6,3 km/h (2 Bft) 93,48 %
10.03.2017 04:32 5,1 C 5,0 C 3,3 C 90 % 0 lf 1026,5 hPa 0,0 l/m 0 min 0 min 0 W/m 6,3 km/h (2 Bft) 95,74 %
10.03.2017 04:34 5,1 C 5,0 C 3,3 C 90 % 0 lf 1026,6 hPa 0,0 l/m 0 min 0 min 0 W/m 10,5 km/h (2 Bft) 97,14 %
10.03.2017 04:36 5,1 C 5,0 C 3,3 C 90 % 0 lf 1026,5 hPa 0,0 l/m 0 min 0 min 0 W/m 8,4 km/h (2 Bft) 94,92 %
10.03.2017 04:38 5,0 C 5,0 C 3,3 C 90 % 0 lf 1026,5 hPa 0,0 l/m 0 min 0 min 0 W/m 6,3 km/h (2 Bft) 97,14 %
10.03.2017 04:40 5,0 C 5,0 C 3,3 C 90 % 0 lf 1026,4 hPa 0,0 l/m 0 min 0 min 0 W/m 4,2 km/h (1 Bft) 95,74 %
10.03.2017 04:42 5,0 C 5,0 C 3,3 C 90 % 0 lf 1026,5 hPa 0,0 l/m 0 min 0 min 0 W/m 4,2 km/h (1 Bft) 98,28 %
10.03.2017 04:44 5,0 C 5,0 C 3,3 C 90 % 0 lf 1026,4 hPa 0,0 l/m 0 min 0 min 0 W/m 2,1 km/h (1 Bft) 86,11 %
10.03.2017 04:46 5,0 C 5,0 C 3,3 C 90 % 0 lf 1026,3 hPa 0,0 l/m 0 min 0 min 0 W/m 4,2 km/h (1 Bft) 93,48 %
10.03.2017 04:48 5,0 C 5,0 C 3,3 C 90 % 0 lf 1026,3 hPa 0,0 l/m 0 min 0 min 0 W/m 4,2 km/h (1 Bft) 91,49 %
10.03.2017 04:50 5,0 C 5,0 C 3,3 C 90 % 0 lf 1026,3 hPa 0,0 l/m 0 min 0 min 0 W/m 4,2 km/h (1 Bft) 96,61 %
10.03.2017 04:52 5,0 C 5,0 C 3,3 C 90 % 0 lf 1026,4 hPa 0,0 l/m 0 min 0 min 0 W/m 4,2 km/h (1 Bft) 94,29 %
10.03.2017 04:54 5,0 C 5,0 C 3,3 C 90 % 0 lf 1026,4 hPa 0,0 l/m 0 min 0 min 0 W/m 4,2 km/h (1 Bft) 97,87 %
10.03.2017 04:56 4,9 C 5,0 C 3,3 C 90 % 0 lf 1026,5 hPa 0,0 l/m 0 min 0 min 0 W/m 6,3 km/h (2 Bft) 91,49 %
10.03.2017 04:58 4,9 C 5,0 C 3,3 C 90 % 0 lf 1026,5 hPa 0,0 l/m 0 min 0 min 0 W/m 6,3 km/h (2 Bft) 95,65 %
10.03.2017 05:00 4,9 C 5,0 C 3,3 C 90 % 0 lf 1026,5 hPa 0,0 l/m 0 min 0 min 0 W/m 14,6 km/h (3 Bft) 94,92 %
10.03.2017 05:02 4,9 C 5,0 C 3,3 C 90 % 0 lf 1026,5 hPa 0,0 l/m 0 min 0 min 0 W/m 10,5 km/h (2 Bft) 93,62 %
10.03.2017 05:04 4,9 C 5,0 C 3,3 C 90 % 0 lf 1026,5 hPa 0,0 l/m 0 min 0 min 0 W/m 6,3 km/h (2 Bft) 95,74 %
10.03.2017 05:06 4,9 C 5,0 C 3,3 C 90 % 0 lf 1026,5 hPa 0,0 l/m 0 min 0 min 0 W/m 2,1 km/h (1 Bft) 95,65 %
10.03.2017 05:08 4,9 C 5,0 C 3,3 C 90 % 0 lf 1026,5 hPa 0,0 l/m 0 min 0 min 0 W/m 2,1 km/h (1 Bft) 95,74 %
10.03.2017 05:10 4,9 C 5,0 C 3,3 C 90 % 0 lf 1026,5 hPa 0,0 l/m 0 min 0 min 0 W/m 4,2 km/h (1 Bft) 94,29 %
10.03.2017 05:12 4,9 C 5,0 C 3,3 C 90 % 0 lf 1026,5 hPa 0,0 l/m 0 min 0 min 0 W/m 4,2 km/h (1 Bft) 95,74 %
10.03.2017 05:14 4,9 C 4,4 C 2,8 C 90 % 0 lf 1026,5 hPa 0,0 l/m 0 min 0 min 0 W/m 2,1 km/h (1 Bft) 93,22 %
10.03.2017 05:16 4,9 C 4,4 C 2,8 C 90 % 0 lf 1026,5 hPa 0,0 l/m 0 min 0 min 0 W/m 2,1 km/h (1 Bft) 94,29 %
10.03.2017 05:18 4,9 C 4,4 C 2,8 C 90 % 0 lf 1026,6 hPa 0,0 l/m 0 min 0 min 0 W/m 4,2 km/h (1 Bft) 93,10 %
10.03.2017 05:20 4,9 C 4,4 C 2,8 C 90 % 0 lf 1026,5 hPa 0,0 l/m 0 min 0 min 0 W/m 4,2 km/h (1 Bft) 95,74 %
10.03.2017 05:22 4,9 C 4,4 C 2,8 C 90 % 0 lf 1026,5 hPa 0,0 l/m 0 min 0 min 0 W/m 6,3 km/h (2 Bft) 91,43 %
10.03.2017 05:24 4,9 C 4,4 C 2,2 C 90 % 0 lf 1026,5 hPa 0,0 l/m 0 min 0 min 0 W/m 4,2 km/h (1 Bft) 94,92 %
10.03.2017 05:26 4,9 C 3,9 C 2,2 C 90 % 0 lf 1026,5 hPa 0,0 l/m 0 min 0 min 0 W/m 6,3 km/h (2 Bft) 91,49 %
10.03.2017 05:28 4,8 C 3,9 C 2,2 C 90 % 0 lf 1026,4 hPa 0,0 l/m 0 min 0 min 0 W/m 6,3 km/h (2 Bft) 97,14 %
10.03.2017 05:30 4,8 C 3,9 C 2,2 C 90 % 0 lf 1026,5 hPa 0,0 l/m 0 min 0 min 0 W/m 4,2 km/h (1 Bft) 93,62 %
10.03.2017 05:32 4,8 C 3,9 C 1,7 C 90 % 0 lf 1026,5 hPa 0,0 l/m 0 min 0 min 0 W/m 4,2 km/h (1 Bft) 96,55 %
10.03.2017 05:34 4,8 C 3,9 C 1,7 C 90 % 0 lf 1026,5 hPa 0,0 l/m 0 min 0 min 5 W/m 4,2 km/h (1 Bft) 95,74 %
10.03.2017 05:36 4,8 C 3,3 C 1,7 C 90 % 0 lf 1026,5 hPa 0,0 l/m 0 min 0 min 1 W/m 4,2 km/h (1 Bft) 95,74 %
10.03.2017 05:38 4,7 C 3,3 C 1,7 C 90 % 0 lf 1026,5 hPa 0,0 l/m 0 min 0 min 0 W/m 4,2 km/h (1 Bft) 100,00 %
10.03.2017 05:40 4,7 C 3,3 C 1,7 C 90 % 0 lf 1026,5 hPa 0,0 l/m 0 min 0 min 0 W/m 4,2 km/h (1 Bft) 95,74 %
10.03.2017 05:42 4,7 C 3,3 C 1,7 C 90 % 0 lf 1026,5 hPa 0,0 l/m 0 min 0 min 0 W/m 4,2 km/h (1 Bft) 93,10 %
10.03.2017 05:44 4,7 C 3,3 C 1,7 C 90 % 0 lf 1026,5 hPa 0,0 l/m 0 min 0 min 0 W/m 4,2 km/h (1 Bft) 94,29 %
10.03.2017 05:46 4,6 C 3,3 C 1,1 C 90 % 0 lf 1026,5 hPa 0,0 l/m 0 min 0 min 0 W/m 4,2 km/h (1 Bft) 95,74 %
10.03.2017 05:48 4,6 C 3,3 C 1,1 C 90 % 0 lf 1026,5 hPa 0,0 l/m 0 min 0 min 0 W/m 4,2 km/h (1 Bft) 93,22 %
10.03.2017 05:50 4,6 C 3,3 C 1,1 C 90 % 0 lf 1026,6 hPa 0,0 l/m 0 min 0 min 0 W/m 4,2 km/h (1 Bft) 93,62 %
10.03.2017 05:52 4,5 C 2,8 C 1,1 C 90 % 0 lf 1026,6 hPa 0,0 l/m 0 min 0 min 0 W/m 4,2 km/h (1 Bft) 95,65 %
10.03.2017 05:54 4,4 C 2,8 C 1,1 C 90 % 0 lf 1026,6 hPa 0,0 l/m 0 min 0 min 0 W/m 2,1 km/h (1 Bft) 94,44 %
10.03.2017 05:56 4,4 C 2,8 C 1,1 C 90 % 0 lf 1026,7 hPa 0,0 l/m 0 min 0 min 0 W/m 4,2 km/h (1 Bft) 94,83 %
10.03.2017 05:58 4,4 C 2,8 C 1,1 C 90 % 0 lf 1026,7 hPa 0,0 l/m 0 min 0 min 0 W/m 4,2 km/h (1 Bft) 97,14 %
10.03.2017 06:00 4,3 C 2,8 C 1,1 C 90 % 0 lf 1026,7 hPa 0,0 l/m 0 min 0 min 0 W/m 4,2 km/h (1 Bft) 97,87 %
10.03.2017 06:02 4,3 C 2,8 C 1,1 C 89 % 0 lf 1026,7 hPa 0,0 l/m 0 min 0 min 0 W/m 0,0 km/h (0 Bft) 93,62 %
10.03.2017 06:04 4,3 C 2,8 C 1,1 C 89 % 1 lf 1026,7 hPa 0,0 l/m 0 min 0 min 0 W/m 0,0 km/h (0 Bft) 98,00 %
10.03.2017 06:06 4,2 C 2,8 C 1,1 C 89 % 1 lf 1026,7 hPa 0,0 l/m 0 min 0 min 0 W/m 0,0 km/h (0 Bft) 93,48 %
10.03.2017 06:08 4,2 C 2,8 C 0,6 C 89 % 1 lf 1026,7 hPa 0,0 l/m 0 min 0 min 0 W/m 0,0 km/h (0 Bft) 95,74 %
10.03.2017 06:10 4,2 C 2,8 C 0,6 C 90 % 1 lf 1026,8 hPa 0,0 l/m 0 min 0 min 0 W/m 0,0 km/h (0 Bft) 95,74 %
10.03.2017 06:12 4,1 C 2,8 C 0,6 C 89 % 1 lf 1026,8 hPa 0,0 l/m 0 min 0 min 0 W/m 2,1 km/h (1 Bft) 97,87 %
10.03.2017 06:14 4,1 C 2,8 C 0,6 C 89 % 1 lf 1026,8 hPa 0,0 l/m 0 min 0 min 0 W/m 4,2 km/h (1 Bft) 91,49 %
10.03.2017 06:16 4,1 C 2,8 C 0,6 C 89 % 1 lf 1026,8 hPa 0,0 l/m 0 min 0 min 0 W/m 4,2 km/h (1 Bft) 97,87 %
10.03.2017 06:18 4,0 C 2,8 C 0,6 C 89 % 1 lf 1026,9 hPa 0,0 l/m 0 min 0 min 0 W/m 4,2 km/h (1 Bft) 97,83 %
10.03.2017 06:20 3,9 C 2,8 C 0,6 C 89 % 1 lf 1026,8 hPa 0,0 l/m 0 min 0 min 0 W/m 4,2 km/h (1 Bft) 97,87 %
10.03.2017 06:22 3,9 C 2,8 C 0,6 C 89 % 1 lf 1026,8 hPa 0,0 l/m 0 min 0 min 0 W/m 2,1 km/h (1 Bft) 95,74 %
10.03.2017 06:24 3,9 C 2,8 C 0,6 C 89 % 1 lf 1026,8 hPa 0,0 l/m 0 min 0 min 0 W/m 4,2 km/h (1 Bft) 97,87 %
10.03.2017 06:26 3,9 C 2,2 C 0,6 C 89 % 1 lf 1026,9 hPa 0,0 l/m 0 min 0 min 0 W/m 6,3 km/h (2 Bft) 97,87 %
10.03.2017 06:28 3,8 C 2,8 C 0,6 C 89 % 1 lf 1026,8 hPa 0,0 l/m 0 min 0 min 0 W/m 6,3 km/h (2 Bft) 95,74 %
10.03.2017 06:30 3,8 C 2,8 C 1,1 C 89 % 1 lf 1026,9 hPa 0,0 l/m 0 min 0 min 0 W/m 6,3 km/h (2 Bft) 95,65 %
10.03.2017 06:32 3,8 C 2,8 C 1,1 C 89 % 1 lf 1026,9 hPa 0,0 l/m 0 min 0 min 0 W/m 6,3 km/h (2 Bft) 93,62 %
10.03.2017 06:34 3,7 C 2,8 C 1,1 C 89 % 1 lf 1026,9 hPa 0,0 l/m 0 min 0 min 0 W/m 6,3 km/h (2 Bft) 95,74 %
10.03.2017 06:36 3,7 C 2,8 C 1,1 C 90 % 1 lf 1026,9 hPa 0,0 l/m 0 min 0 min 0 W/m 4,2 km/h (1 Bft) 97,87 %
10.03.2017 06:38 3,7 C 2,8 C 1,1 C 90 % 1 lf 1027,0 hPa 0,0 l/m 0 min 0 min 0 W/m 6,3 km/h (2 Bft) 100,00 %
10.03.2017 06:40 3,7 C 2,8 C 0,6 C 90 % 1 lf 1027,0 hPa 0,0 l/m 0 min 0 min 0 W/m 6,3 km/h (2 Bft) 100,00 %
10.03.2017 06:42 3,6 C 2,2 C 0,6 C 90 % 1 lf 1027,0 hPa 0,0 l/m 0 min 0 min 0 W/m 4,2 km/h (1 Bft) 95,65 %
10.03.2017 06:44 3,6 C 2,2 C 0,6 C 90 % 1 lf 1027,0 hPa 0,0 l/m 0 min 0 min 0 W/m 0,0 km/h (0 Bft) 97,87 %
10.03.2017 06:46 3,6 C 2,2 C 0,6 C 90 % 1 lf 1027,0 hPa 0,0 l/m 0 min 0 min 0 W/m 0,0 km/h (0 Bft) 97,87 %
10.03.2017 06:48 3,6 C 2,2 C 0,6 C 90 % 1 lf 1027,1 hPa 0,0 l/m 0 min 0 min 3 W/m 0,0 km/h (0 Bft) 97,87 %
10.03.2017 06:50 3,5 C 2,2 C 0,6 C 90 % 1 lf 1027,1 hPa 0,0 l/m 0 min 0 min 10 W/m 2,1 km/h (1 Bft) 97,87 %
10.03.2017 06:52 3,5 C 2,2 C 0,6 C 90 % 1 lf 1027,1 hPa 0,0 l/m 0 min 0 min 13 W/m 4,2 km/h (1 Bft) 100,00 %
10.03.2017 06:54 3,4 C 2,8 C 0,6 C 90 % 1 lf 1027,1 hPa 0,0 l/m 0 min 0 min 14 W/m 4,2 km/h (1 Bft) 97,83 %
10.03.2017 06:56 3,4 C 2,8 C 1,1 C 90 % 1 lf 1027,2 hPa 0,0 l/m 0 min 0 min 15 W/m 2,1 km/h (1 Bft) 97,87 %
10.03.2017 06:58 3,4 C 2,8 C 1,1 C 90 % 1 lf 1027,2 hPa 0,0 l/m 0 min 0 min 16 W/m 2,1 km/h (1 Bft) 97,87 %
10.03.2017 07:00 3,4 C 2,8 C 1,1 C 90 % 1 lf 1027,3 hPa 0,0 l/m 0 min 0 min 16 W/m 6,3 km/h (2 Bft) 93,62 %
10.03.2017 07:02 3,4 C 2,8 C 1,1 C 90 % 1 lf 1027,3 hPa 0,0 l/m 0 min 0 min 18 W/m 8,4 km/h (2 Bft) 93,62 %
10.03.2017 07:04 3,3 C 2,8 C 1,7 C 90 % 1 lf 1027,3 hPa 0,0 l/m 0 min 0 min 18 W/m 8,4 km/h (2 Bft) 100,00 %
10.03.2017 07:06 3,3 C 3,3 C 1,7 C 90 % 1 lf 1027,3 hPa 0,0 l/m 0 min 0 min 19 W/m 6,3 km/h (2 Bft) 95,65 %
10.03.2017 07:08 3,3 C 3,3 C 1,7 C 90 % 0 lf 1027,4 hPa 0,0 l/m 0 min 0 min 10 W/m 4,2 km/h (1 Bft) 100,00 %
10.03.2017 07:10 3,3 C 3,3 C 1,7 C 90 % 0 lf 1027,3 hPa 0,0 l/m 0 min 0 min 18 W/m 6,3 km/h (2 Bft) 93,62 %
10.03.2017 07:12 3,3 C 3,3 C 1,7 C 90 % 0 lf 1027,3 hPa 0,0 l/m 0 min 0 min 18 W/m 6,3 km/h (2 Bft) 95,74 %
10.03.2017 07:14 3,3 C 3,3 C 2,2 C 90 % 0 lf 1027,3 hPa 0,0 l/m 0 min 0 min 18 W/m 6,3 km/h (2 Bft) 95,74 %
10.03.2017 07:16 3,3 C 3,3 C 2,2 C 91 % 0 lf 1027,4 hPa 0,0 l/m 0 min 0 min 18 W/m 4,2 km/h (1 Bft) 93,48 %
10.03.2017 07:18 3,3 C 3,3 C 2,2 C 91 % 0 lf 1027,4 hPa 0,0 l/m 0 min 0 min 18 W/m 4,2 km/h (1 Bft) 93,62 %
10.03.2017 07:20 3,3 C 3,3 C 2,2 C 91 % 0 lf 1027,4 hPa 0,0 l/m 0 min 0 min 18 W/m 4,2 km/h (1 Bft) 91,49 %
10.03.2017 07:22 3,3 C 3,3 C 2,2 C 91 % 0 lf 1027,4 hPa 0,0 l/m 0 min 0 min 18 W/m 4,2 km/h (1 Bft) 95,74 %
10.03.2017 07:24 3,3 C 3,9 C 2,2 C 91 % 0 lf 1027,4 hPa 0,0 l/m 0 min 0 min 18 W/m 2,1 km/h (1 Bft) 93,62 %
10.03.2017 07:26 3,3 C 3,9 C 2,2 C 91 % 0 lf 1027,5 hPa 0,0 l/m 0 min 0 min 18 W/m 4,2 km/h (1 Bft) 95,74 %
10.03.2017 07:28 3,3 C 3,9 C 2,2 C 91 % 0 lf 1027,5 hPa 0,0 l/m 0 min 0 min 18 W/m 6,3 km/h (2 Bft) 95,65 %
10.03.2017 07:30 3,3 C 3,9 C 2,2 C 91 % 0 lf 1027,5 hPa 0,0 l/m 0 min 0 min 18 W/m 4,2 km/h (1 Bft) 95,74 %
10.03.2017 07:32 3,4 C 3,9 C 2,8 C 91 % 0 lf 1027,5 hPa 0,0 l/m 0 min 0 min 18 W/m 4,2 km/h (1 Bft) 89,36 %
10.03.2017 07:34 3,4 C 3,9 C 2,8 C 91 % 0 lf 1027,5 hPa 0,0 l/m 0 min 0 min 37 W/m 4,2 km/h (1 Bft) 95,74 %
10.03.2017 07:36 3,4 C 3,9 C 2,8 C 91 % 0 lf 1027,6 hPa 0,0 l/m 0 min 0 min 37 W/m 4,2 km/h (1 Bft) 91,49 %
10.03.2017 07:38 3,4 C 3,9 C 2,8 C 92 % 0 lf 1027,6 hPa 0,0 l/m 0 min 0 min 38 W/m 4,2 km/h (1 Bft) 95,74 %
10.03.2017 07:40 3,4 C 3,9 C 2,2 C 92 % 0 lf 1027,6 hPa 0,0 l/m 0 min 0 min 41 W/m 4,2 km/h (1 Bft) 93,62 %
10.03.2017 07:42 3,4 C 3,9 C 2,2 C 92 % 0 lf 1027,5 hPa 0,0 l/m 0 min 0 min 45 W/m 4,2 km/h (1 Bft) 97,83 %
10.03.2017 07:44 3,4 C 3,9 C 2,2 C 92 % 0 lf 1027,5 hPa 0,0 l/m 2 min 0 min 54 W/m 4,2 km/h (1 Bft) 97,87 %
10.03.2017 07:46 3,4 C 3,9 C 2,2 C 92 % 0 lf 1027,5 hPa 0,0 l/m 2 min 0 min 62 W/m 0,0 km/h (0 Bft) 97,87 %
10.03.2017 07:48 3,4 C 3,9 C 2,2 C 92 % 0 lf 1027,5 hPa 0,0 l/m 2 min 0 min 65 W/m 0,0 km/h (0 Bft) 97,87 %
10.03.2017 07:50 3,4 C 3,9 C 2,2 C 92 % 0 lf 1027,5 hPa 0,0 l/m 2 min 0 min 69 W/m 2,1 km/h (1 Bft) 97,87 %
10.03.2017 07:52 3,5 C 4,4 C 2,2 C 92 % 0 lf 1027,5 hPa 0,0 l/m 2 min 0 min 76 W/m 4,2 km/h (1 Bft) 95,65 %
10.03.2017 07:54 3,5 C 4,4 C 2,8 C 92 % 0 lf 1027,5 hPa 0,0 l/m 2 min 0 min 87 W/m 4,2 km/h (1 Bft) 97,87 %
10.03.2017 07:56 3,5 C 4,4 C 2,8 C 92 % 0 lf 1027,5 hPa 0,0 l/m 2 min 0 min 106 W/m 4,2 km/h (1 Bft) 100,00 %
10.03.2017 07:58 3,5 C 5,0 C 2,8 C 92 % 0 lf 1027,5 hPa 0,0 l/m 2 min 0 min 123 W/m 4,2 km/h (1 Bft) 100,00 %
10.03.2017 08:00 3,6 C 5,0 C 2,8 C 92 % 0 lf 1027,5 hPa 0,0 l/m 2 min 0 min 115 W/m 4,2 km/h (1 Bft) 97,87 %
10.03.2017 08:02 3,6 C 5,0 C 2,8 C 92 % 0 lf 1027,5 hPa 0,0 l/m 2 min 0 min 84 W/m 6,3 km/h (2 Bft) 97,87 %
10.03.2017 08:04 3,6 C 5,0 C 2,8 C 92 % 0 lf 1027,5 hPa 0,0 l/m 2 min 0 min 93 W/m 4,2 km/h (1 Bft) 100,00 %
10.03.2017 08:06 3,6 C 5,0 C 2,8 C 92 % 0 lf 1027,5 hPa 0,0 l/m 2 min 0 min 111 W/m 4,2 km/h (1 Bft) 97,87 %
10.03.2017 08:08 3,6 C 5,6 C 3,3 C 92 % 0 lf 1027,5 hPa 0,0 l/m 2 min 0 min 108 W/m 4,2 km/h (1 Bft) 97,87 %
10.03.2017 08:10 3,6 C 5,6 C 3,3 C 92 % 0 lf 1027,6 hPa 0,0 l/m 2 min 0 min 92 W/m 6,3 km/h (2 Bft) 97,87 %
10.03.2017 08:12 3,7 C 5,6 C 3,9 C 93 % 0 lf 1027,5 hPa 0,0 l/m 0 min 0 min 84 W/m 4,2 km/h (1 Bft) 100,00 %
10.03.2017 08:14 3,7 C 5,6 C 3,9 C 93 % 0 lf 1027,6 hPa 0,0 l/m 0 min 0 min 81 W/m 4,2 km/h (1 Bft) 97,87 %
10.03.2017 08:16 3,7 C 5,6 C 3,9 C 93 % 0 lf 1027,6 hPa 0,0 l/m 0 min 0 min 86 W/m 6,3 km/h (2 Bft) 100,00 %
10.03.2017 08:18 3,8 C 5,6 C 3,9 C 93 % 0 lf 1027,6 hPa 0,0 l/m 0 min 0 min 81 W/m 4,2 km/h (1 Bft) 95,74 %
10.03.2017 08:20 3,8 C 5,6 C 3,9 C 93 % 0 lf 1027,7 hPa 0,0 l/m 0 min 0 min 79 W/m 4,2 km/h (1 Bft) 100,00 %
10.03.2017 08:22 3,9 C 5,6 C 3,9 C 93 % 0 lf 1027,6 hPa 0,0 l/m 0 min 0 min 77 W/m 2,1 km/h (1 Bft) 97,87 %
10.03.2017 08:24 3,9 C 5,6 C 4,4 C 93 % 0 lf 1027,7 hPa 0,0 l/m 0 min 0 min 82 W/m 4,2 km/h (1 Bft) 100,00 %
10.03.2017 08:26 3,9 C 5,6 C 4,4 C 93 % 0 lf 1027,6 hPa 0,0 l/m 0 min 0 min 91 W/m 4,2 km/h (1 Bft) 100,00 %
10.03.2017 08:28 4,0 C 5,6 C 4,4 C 93 % 0 lf 1027,7 hPa 0,0 l/m 0 min 0 min 106 W/m 2,1 km/h (1 Bft) 100,00 %
10.03.2017 08:30 4,1 C 6,1 C 4,4 C 93 % 0 lf 1027,8 hPa 0,0 l/m 2 min 0 min 115 W/m 6,3 km/h (2 Bft) 97,87 %
10.03.2017 08:32 4,1 C 6,1 C 4,4 C 93 % 0 lf 1027,8 hPa 0,0 l/m 0 min 0 min 109 W/m 2,1 km/h (1 Bft) 100,00 %
10.03.2017 08:34 4,2 C 6,1 C 5,0 C 93 % 0 lf 1027,9 hPa 0,0 l/m 0 min 0 min 108 W/m 0,0 km/h (0 Bft) 100,00 %
10.03.2017 08:36 4,2 C 6,7 C 5,0 C 94 % 0 lf 1027,9 hPa 0,0 l/m 0 min 0 min 106 W/m 0,0 km/h (0 Bft) 100,00 %
10.03.2017 08:38 4,2 C 6,7 C 5,0 C 94 % 0 lf 1027,9 hPa 0,0 l/m 0 min 0 min 108 W/m 0,0 km/h (0 Bft) 100,00 %
10.03.2017 08:40 4,2 C 6,7 C 5,0 C 94 % 0 lf 1027,8 hPa 0,0 l/m 0 min 0 min 108 W/m 0,0 km/h (0 Bft) 100,00 %
10.03.2017 08:42 4,3 C 6,7 C 5,0 C 94 % 0 lf 1027,9 hPa 0,0 l/m 0 min 0 min 112 W/m 0,0 km/h (0 Bft) 95,74 %
10.03.2017 08:44 4,4 C 6,7 C 5,0 C 94 % 0 lf 1027,9 hPa 0,0 l/m 0 min 0 min 110 W/m 0,0 km/h (0 Bft) 95,74 %
10.03.2017 08:46 4,4 C 6,7 C 5,6 C 94 % 0 lf 1027,9 hPa 0,0 l/m 0 min 0 min 106 W/m 0,0 km/h (0 Bft) 97,87 %
10.03.2017 08:48 4,5 C 6,7 C 5,6 C 94 % 0 lf 1027,9 hPa 0,0 l/m 0 min 0 min 107 W/m 0,0 km/h (0 Bft) 93,62 %
10.03.2017 08:50 4,6 C 6,7 C 5,0 C 94 % 0 lf 1027,9 hPa 0,0 l/m 0 min 0 min 112 W/m 0,0 km/h (0 Bft) 93,48 %
10.03.2017 08:52 4,6 C 7,2 C 5,6 C 94 % 0 lf 1028,0 hPa 0,0 l/m 0 min 0 min 123 W/m 0,0 km/h (0 Bft) 93,62 %
10.03.2017 08:54 4,7 C 7,2 C 5,6 C 94 % 0 lf 1028,0 hPa 0,0 l/m 0 min 0 min 134 W/m 6,3 km/h (2 Bft) 93,62 %
10.03.2017 08:56 4,7 C 7,2 C 5,6 C 94 % 0 lf 1028,0 hPa 0,0 l/m 2 min 0 min 149 W/m 8,4 km/h (2 Bft) 93,62 %
10.03.2017 08:58 4,8 C 7,2 C 5,6 C 94 % 0 lf 1028,0 hPa 0,0 l/m 2 min 0 min 177 W/m 4,2 km/h (1 Bft) 91,49 %
10.03.2017 09:00 4,8 C 7,8 C 6,1 C 94 % 0 lf 1028,0 hPa 0,0 l/m 2 min 0 min 190 W/m 2,1 km/h (1 Bft) 91,49 %
10.03.2017 09:02 4,9 C 9,4 C 6,7 C 94 % 0 lf 1028,0 hPa 0,0 l/m 2 min 0 min 260 W/m 6,3 km/h (2 Bft) 93,48 %
10.03.2017 09:04 4,9 C 9,4 C 6,7 C 95 % 0 lf 1028,0 hPa 0,0 l/m 2 min 0 min 324 W/m 6,3 km/h (2 Bft) 93,62 %
10.03.2017 09:06 5,1 C 11,1 C 7,8 C 95 % 0 lf 1028,1 hPa 0,0 l/m 2 min 0 min 287 W/m 6,3 km/h (2 Bft) 93,62 %
10.03.2017 09:08 5,2 C 11,1 C 7,8 C 95 % 0 lf 1028,1 hPa 0,0 l/m 2 min 0 min 210 W/m 6,3 km/h (2 Bft) 85,11 %
10.03.2017 09:10 5,2 C 10,6 C 7,2 C 95 % 0 lf 1028,2 hPa 0,0 l/m 2 min 0 min 196 W/m 6,3 km/h (2 Bft) 91,49 %
10.03.2017 09:12 5,3 C 10,0 C 7,2 C 95 % 0 lf 1028,2 hPa 0,0 l/m 2 min 0 min 210 W/m 6,3 km/h (2 Bft) 91,49 %
10.03.2017 09:14 5,4 C 10,0 C 7,2 C 95 % 0 lf 1028,2 hPa 0,0 l/m 2 min 0 min 211 W/m 6,3 km/h (2 Bft) 89,13 %
10.03.2017 09:16 5,4 C 10,0 C 7,2 C 95 % 0 lf 1028,2 hPa 0,0 l/m 2 min 0 min 210 W/m 4,2 km/h (1 Bft) 27,59 %
10.03.2017 09:18 5,5 C 9,4 C 7,2 C 95 % 0 lf 1028,3 hPa 0,0 l/m 2 min 0 min 210 W/m 8,4 km/h (2 Bft) 91,30 %
10.03.2017 09:20 5,6 C 8,9 C 7,2 C 94 % 0 lf 1028,2 hPa 0,0 l/m 2 min 0 min 192 W/m 8,4 km/h (2 Bft) 93,62 %
10.03.2017 09:22 5,6 C 9,4 C 7,2 C 94 % 0 lf 1028,3 hPa 0,0 l/m 2 min 0 min 205 W/m 6,3 km/h (2 Bft) 93,62 %
10.03.2017 09:27 5,7 C 10,6 C 7,8 C 94 % 0 lf 1028,3 hPa 0,0 l/m 2 min 0 min 235 W/m 8,4 km/h (2 Bft) 96,67 %
10.03.2017 09:28 5,7 C 10,6 C 7,8 C 94 % 0 lf 1028,3 hPa 0,0 l/m 1 min 0 min 245 W/m 4,2 km/h (1 Bft) 91,30 %
10.03.2017 09:30 5,8 C 11,1 C 8,3 C 94 % 0 lf 1028,2 hPa 0,0 l/m 2 min 0 min 274 W/m 8,4 km/h (2 Bft) 93,62 %
10.03.2017 09:32 5,9 C 10,6 C 7,8 C 94 % 0 lf 1028,3 hPa 0,0 l/m 2 min 0 min 231 W/m 8,4 km/h (2 Bft) 93,62 %
10.03.2017 09:34 5,9 C 10,6 C 7,8 C 94 % 0 lf 1028,2 hPa 0,0 l/m 2 min 0 min 218 W/m 6,3 km/h (2 Bft) 91,49 %
10.03.2017 09:36 6,0 C 10,6 C 7,8 C 94 % 0 lf 1028,3 hPa 0,0 l/m 2 min 0 min 219 W/m 8,4 km/h (2 Bft) 93,48 %
10.03.2017 09:38 6,1 C 10,6 C 7,8 C 93 % 0 lf 1028,3 hPa 0,0 l/m 2 min 0 min 209 W/m 6,3 km/h (2 Bft) 95,74 %
10.03.2017 09:40 6,1 C 10,6 C 7,8 C 93 % 0 lf 1028,4 hPa 0,0 l/m 2 min 0 min 217 W/m 8,4 km/h (2 Bft) 95,74 %
10.03.2017 09:42 6,2 C 10,0 C 7,8 C 93 % 0 lf 1028,3 hPa 0,0 l/m 2 min 0 min 252 W/m 8,4 km/h (2 Bft) 91,49 %
10.03.2017 09:44 6,2 C 9,4 C 7,8 C 93 % 0 lf 1028,3 hPa 0,0 l/m 2 min 0 min 266 W/m 8,4 km/h (2 Bft) 95,74 %
10.03.2017 09:46 6,3 C 10,0 C 8,3 C 92 % 0 lf 1028,4 hPa 0,0 l/m 2 min 0 min 288 W/m 8,4 km/h (2 Bft) 100,00 %
10.03.2017 09:48 6,3 C 12,2 C 8,9 C 92 % 0 lf 1028,3 hPa 0,0 l/m 2 min 0 min 328 W/m 6,3 km/h (2 Bft) 97,83 %
10.03.2017 09:50 6,4 C 15,6 C 11,1 C 92 % 0 lf 1028,4 hPa 0,0 l/m 2 min 0 min 425 W/m 8,4 km/h (2 Bft) 95,74 %
10.03.2017 09:52 6,6 C 18,3 C 12,2 C 92 % 0 lf 1028,3 hPa 0,0 l/m 2 min 0 min 429 W/m 10,5 km/h (2 Bft) 93,62 %
10.03.2017 09:54 6,7 C 18,9 C 11,7 C 91 % 0 lf 1028,3 hPa 0,0 l/m 2 min 0 min 448 W/m 10,5 km/h (2 Bft) 97,87 %
10.03.2017 09:56 6,8 C 18,9 C 11,1 C 91 % 0 lf 1028,3 hPa 0,0 l/m 2 min 0 min 428 W/m 10,5 km/h (2 Bft) 97,87 %
10.03.2017 09:58 6,9 C 17,8 C 10,6 C 90 % 0 lf 1028,3 hPa 0,0 l/m 2 min 0 min 354 W/m 6,3 km/h (2 Bft) 95,74 %
10.03.2017 10:00 7,0 C 17,2 C 10,6 C 89 % 0 lf 1028,2 hPa 0,0 l/m 2 min 0 min 328 W/m 8,4 km/h (2 Bft) 97,83 %
10.03.2017 10:02 7,1 C 14,4 C 9,4 C 89 % 0 lf 1028,3 hPa 0,0 l/m 0 min 0 min 169 W/m 6,3 km/h (2 Bft) 95,74 %
10.03.2017 10:04 7,1 C 13,3 C 8,9 C 88 % 0 lf 1028,3 hPa 0,0 l/m 0 min 0 min 165 W/m 6,3 km/h (2 Bft) 97,87 %
10.03.2017 10:06 7,1 C 12,2 C 8,3 C 87 % 0 lf 1028,2 hPa 0,0 l/m 0 min 0 min 176 W/m 8,4 km/h (2 Bft) 97,87 %
10.03.2017 10:08 7,2 C 12,2 C 8,3 C 87 % 0 lf 1028,2 hPa 0,0 l/m 0 min 0 min 186 W/m 6,3 km/h (2 Bft) 97,87 %
10.03.2017 10:10 7,2 C 11,1 C 8,3 C 87 % 0 lf 1028,2 hPa 0,0 l/m 0 min 0 min 205 W/m 6,3 km/h (2 Bft) 97,87 %
10.03.2017 10:12 7,2 C 13,3 C 9,4 C 86 % 0 lf 1028,2 hPa 0,0 l/m 2 min 0 min 335 W/m 2,1 km/h (1 Bft) 97,83 %
10.03.2017 10:14 7,3 C 16,1 C 10,6 C 85 % 0 lf 1028,2 hPa 0,0 l/m 2 min 0 min 540 W/m 4,2 km/h (1 Bft) 93,62 %
10.03.2017 10:16 7,4 C 17,2 C 11,7 C 85 % 0 lf 1028,2 hPa 0,0 l/m 2 min 0 min 539 W/m 6,3 km/h (2 Bft) 97,87 %
10.03.2017 10:18 7,4 C 18,3 C 11,7 C 85 % 0 lf 1028,2 hPa 0,0 l/m 2 min 0 min 531 W/m 6,3 km/h (2 Bft) 95,74 %
10.03.2017 10:20 7,6 C 17,2 C 12,2 C 85 % 0 lf 1028,2 hPa 0,0 l/m 2 min 0 min 560 W/m 8,4 km/h (2 Bft) 93,62 %
10.03.2017 10:22 7,7 C 17,8 C 12,2 C 84 % 0 lf 1028,2 hPa 0,0 l/m 2 min 0 min 572 W/m 4,2 km/h (1 Bft) 95,74 %
10.03.2017 10:24 7,8 C 16,7 C 12,8 C 83 % 0 lf 1028,2 hPa 0,0 l/m 2 min 0 min 598 W/m 6,3 km/h (2 Bft) 95,65 %
10.03.2017 10:26 7,9 C 19,4 C 13,3 C 83 % 0 lf 1028,2 hPa 0,0 l/m 2 min 0 min 611 W/m 6,3 km/h (2 Bft) 97,87 %
10.03.2017 10:28 8,0 C 17,8 C 12,8 C 83 % 0 lf 1028,2 hPa 0,0 l/m 2 min 0 min 610 W/m 8,4 km/h (2 Bft) 97,92 %
10.03.2017 10:30 8,2 C 16,7 C 12,8 C 82 % 0 lf 1028,2 hPa 0,0 l/m 2 min 0 min 610 W/m 10,5 km/h (2 Bft) 95,74 %
10.03.2017 10:32 8,3 C 17,8 C 13,3 C 83 % 0 lf 1028,2 hPa 0,0 l/m 2 min 0 min 627 W/m 10,5 km/h (2 Bft) 85,11 %
10.03.2017 10:34 8,4 C 20,0 C 13,9 C 82 % 0 lf 1028,2 hPa 0,0 l/m 2 min 0 min 626 W/m 8,4 km/h (2 Bft) 97,87 %
10.03.2017 10:36 8,6 C 21,7 C 13,9 C 82 % 0 lf 1028,2 hPa 0,0 l/m 2 min 0 min 639 W/m 8,4 km/h (2 Bft) 97,83 %
10.03.2017 10:38 8,7 C 22,2 C 14,4 C 81 % 0 lf 1028,3 hPa 0,0 l/m 2 min 0 min 635 W/m 10,5 km/h (2 Bft) 97,87 %
10.03.2017 10:40 8,8 C 21,1 C 14,4 C 81 % 0 lf 1028,3 hPa 0,0 l/m 2 min 0 min 601 W/m 8,4 km/h (2 Bft) 93,62 %
10.03.2017 10:42 8,9 C 21,1 C 15,0 C 81 % 0 lf 1028,2 hPa 0,0 l/m 2 min 0 min 602 W/m 8,4 km/h (2 Bft) 97,87 %
10.03.2017 10:44 9,1 C 20,0 C 12,8 C 80 % 0 lf 1028,2 hPa 0,0 l/m 2 min 0 min 535 W/m 10,5 km/h (2 Bft) 97,87 %
10.03.2017 10:46 9,1 C 16,7 C 12,2 C 79 % 0 lf 1028,2 hPa 0,0 l/m 2 min 0 min 258 W/m 8,4 km/h (2 Bft) 100,00 %
10.03.2017 10:48 9,2 C 15,6 C 10,6 C 79 % 0 lf 1028,3 hPa 0,0 l/m 0 min 0 min 210 W/m 6,3 km/h (2 Bft) 100,00 %
10.03.2017 10:50 9,2 C 15,0 C 10,0 C 78 % 0 lf 1028,4 hPa 0,0 l/m 0 min 0 min 191 W/m 10,5 km/h (2 Bft) 100,00 %
10.03.2017 10:52 9,2 C 16,7 C 11,1 C 78 % 0 lf 1028,4 hPa 0,0 l/m 0 min 0 min 213 W/m 8,4 km/h (2 Bft) 100,00 %
10.03.2017 10:54 9,2 C 18,3 C 11,1 C 78 % 0 lf 1028,4 hPa 0,0 l/m 2 min 0 min 518 W/m 8,4 km/h (2 Bft) 97,87 %
10.03.2017 10:56 9,1 C 16,7 C 10,0 C 77 % 0 lf 1028,4 hPa 0,0 l/m 2 min 0 min 501 W/m 8,4 km/h (2 Bft) 97,87 %
10.03.2017 10:58 9,1 C 14,4 C 8,9 C 76 % 0 lf 1028,5 hPa 0,0 l/m 0 min 0 min 136 W/m 8,4 km/h (2 Bft) 97,87 %
10.03.2017 11:00 9,0 C 13,9 C 8,3 C 76 % 0 lf 1028,5 hPa 0,0 l/m 0 min 0 min 141 W/m 6,3 km/h (2 Bft) 100,00 %
10.03.2017 11:02 8,9 C 12,8 C 7,8 C 76 % 0 lf 1028,4 hPa 0,0 l/m 0 min 0 min 141 W/m 6,3 km/h (2 Bft) 95,74 %
10.03.2017 11:04 8,9 C 12,8 C 8,3 C 75 % 0 lf 1028,4 hPa 0,0 l/m 0 min 0 min 168 W/m 8,4 km/h (2 Bft) 100,00 %
10.03.2017 11:06 8,8 C 15,6 C 10,0 C 75 % 0 lf 1028,4 hPa 0,0 l/m 2 min 0 min 543 W/m 4,2 km/h (1 Bft) 100,00 %
10.03.2017 11:08 8,8 C 17,8 C 11,7 C 75 % 0 lf 1028,4 hPa 0,0 l/m 2 min 0 min 561 W/m 6,3 km/h (2 Bft) 100,00 %
10.03.2017 11:10 8,8 C 17,8 C 12,8 C 76 % 0 lf 1028,4 hPa 0,0 l/m 2 min 0 min 588 W/m 6,3 km/h (2 Bft) 97,87 %
10.03.2017 11:12 8,8 C 20,6 C 13,3 C 76 % 0 lf 1028,5 hPa 0,0 l/m 2 min 0 min 606 W/m 8,4 km/h (2 Bft) 100,00 %
10.03.2017 11:14 8,8 C 22,2 C 13,3 C 75 % 0 lf 1028,4 hPa 0,0 l/m 2 min 0 min 619 W/m 6,3 km/h (2 Bft) 93,62 %
10.03.2017 11:16 8,9 C 23,3 C 12,2 C 76 % 0 lf 1028,5 hPa 0,0 l/m 2 min 0 min 622 W/m 8,4 km/h (2 Bft) 97,87 %
10.03.2017 11:18 8,9 C 24,4 C 11,7 C 76 % 0 lf 1028,5 hPa 0,0 l/m 2 min 0 min 617 W/m 8,4 km/h (2 Bft) 95,74 %
10.03.2017 11:20 9,0 C 24,4 C 10,6 C 76 % 0 lf 1028,5 hPa 0,0 l/m 2 min 0 min 611 W/m 4,2 km/h (1 Bft) 100,00 %
10.03.2017 11:22 9,1 C 25,0 C 10,0 C 75 % 0 lf 1028,4 hPa 0,0 l/m 2 min 0 min 616 W/m 8,4 km/h (2 Bft) 100,00 %
10.03.2017 11:24 9,2 C 23,9 C 10,6 C 76 % 0 lf 1028,3 hPa 0,0 l/m 2 min 0 min 628 W/m 6,3 km/h (2 Bft) 100,00 %
10.03.2017 11:26 9,2 C 23,3 C 10,0 C 76 % 0 lf 1028,3 hPa 0,0 l/m 2 min 0 min 597 W/m 4,2 km/h (1 Bft) 97,87 %
10.03.2017 11:28 9,3 C 20,6 C 10,6 C 75 % 0 lf 1028,2 hPa 0,0 l/m 2 min 0 min 562 W/m 6,3 km/h (2 Bft) 100,00 %
10.03.2017 11:30 9,4 C 21,1 C 10,6 C 74 % 0 lf 1028,2 hPa 0,0 l/m 2 min 0 min 625 W/m 6,3 km/h (2 Bft) 97,87 %
10.03.2017 11:32 9,6 C 20,6 C 10,6 C 75 % 0 lf 1028,2 hPa 0,0 l/m 2 min 0 min 623 W/m 10,5 km/h (2 Bft) 97,87 %
10.03.2017 11:34 9,7 C 20,0 C 11,1 C 74 % 0 lf 1028,1 hPa 0,0 l/m 2 min 0 min 674 W/m 8,4 km/h (2 Bft) 95,65 %
10.03.2017 11:36 9,8 C 21,7 C 11,1 C 75 % 0 lf 1028,1 hPa 0,0 l/m 2 min 0 min 702 W/m 4,2 km/h (1 Bft) 93,62 %
10.03.2017 11:38 9,9 C 23,3 C 10,6 C 75 % 0 lf 1028,1 hPa 0,0 l/m 2 min 0 min 744 W/m 8,4 km/h (2 Bft) 93,62 %
10.03.2017 11:40 10,0 C 23,3 C 10,6 C 73 % 0 lf 1028,2 hPa 0,0 l/m 2 min 0 min 583 W/m 4,2 km/h (1 Bft) 95,74 %
10.03.2017 11:42 10,1 C 23,9 C 10,0 C 73 % 0 lf 1028,1 hPa 0,0 l/m 2 min 0 min 585 W/m 6,3 km/h (2 Bft) 91,49 %
10.03.2017 11:44 10,1 C 23,9 C 10,6 C 72 % 0 lf 1028,1 hPa 0,0 l/m 2 min 0 min 586 W/m 6,3 km/h (2 Bft) 95,74 %
10.03.2017 11:46 10,2 C 23,9 C 9,4 C 72 % 0 lf 1028,1 hPa 0,0 l/m 2 min 0 min 588 W/m 6,3 km/h (2 Bft) 93,48 %
10.03.2017 11:48 10,2 C 21,1 C 10,0 C 71 % 0 lf 1028,2 hPa 0,0 l/m 2 min 0 min 589 W/m 4,2 km/h (1 Bft) 93,62 %
10.03.2017 11:50 10,2 C 22,2 C 11,1 C 71 % 0 lf 1028,2 hPa 0,0 l/m 2 min 0 min 591 W/m 8,4 km/h (2 Bft) 93,62 %
10.03.2017 11:52 10,3 C 22,2 C 12,2 C 72 % 0 lf 1028,1 hPa 0,0 l/m 2 min 0 min 592 W/m 6,3 km/h (2 Bft) 94,00 %
10.03.2017 11:54 10,3 C 23,3 C 11,7 C 72 % 0 lf 1028,1 hPa 0,0 l/m 2 min 0 min 593 W/m 8,4 km/h (2 Bft) 87,23 %
10.03.2017 11:56 10,3 C 23,3 C 10,6 C 71 % 0 lf 1028,1 hPa 0,0 l/m 2 min 0 min 720 W/m 6,3 km/h (2 Bft) 91,49 %
10.03.2017 11:58 10,3 C 23,9 C 10,0 C 70 % 0 lf 1028,1 hPa 0,0 l/m 2 min 0 min 676 W/m 6,3 km/h (2 Bft) 89,13 %
10.03.2017 12:00 10,3 C 23,3 C 10,0 C 70 % 0 lf 1028,1 hPa 0,0 l/m 2 min 0 min 597 W/m 10,5 km/h (2 Bft) 93,62 %
10.03.2017 12:02 10,2 C 23,9 C 9,4 C 70 % 0 lf 1028,1 hPa 0,0 l/m 2 min 0 min 789 W/m 6,3 km/h (2 Bft) 93,62 %
10.03.2017 12:04 10,2 C 23,3 C 10,0 C 70 % 0 lf 1028,1 hPa 0,0 l/m 2 min 0 min 680 W/m 10,5 km/h (2 Bft) 94,29 %
10.03.2017 12:06 10,2 C 23,9 C 10,6 C 71 % 0 lf 1028,0 hPa 0,0 l/m 2 min 0 min 667 W/m 12,6 km/h (3 Bft) 89,36 %
10.03.2017 12:08 10,2 C 22,2 C 10,6 C 71 % 0 lf 1028,0 hPa 0,0 l/m 2 min 0 min 668 W/m 8,4 km/h (2 Bft) 93,62 %
10.03.2017 12:10 10,3 C 20,6 C 10,6 C 70 % 0 lf 1028,0 hPa 0,0 l/m 2 min 0 min 686 W/m 8,4 km/h (2 Bft) 95,74 %
10.03.2017 12:12 10,3 C 21,1 C 10,6 C 71 % 0 lf 1028,0 hPa 0,0 l/m 2 min 0 min 695 W/m 10,5 km/h (2 Bft) 91,30 %
10.03.2017 12:14 10,4 C 22,2 C 10,6 C 72 % 0 lf 1027,9 hPa 0,0 l/m 2 min 0 min 689 W/m 12,6 km/h (3 Bft) 93,62 %
10.03.2017 12:16 10,5 C 20,6 C 10,6 C 70 % 0 lf 1028,0 hPa 0,0 l/m 2 min 0 min 683 W/m 10,5 km/h (2 Bft) 93,62 %
10.03.2017 12:18 10,6 C 23,3 C 10,0 C 70 % 0 lf 1027,9 hPa 0,0 l/m 2 min 0 min 687 W/m 6,3 km/h (2 Bft) 93,62 %
10.03.2017 12:20 10,6 C 21,1 C 10,0 C 69 % 0 lf 1027,9 hPa 0,0 l/m 2 min 0 min 671 W/m 8,4 km/h (2 Bft) 95,74 %
10.03.2017 12:22 10,7 C 21,1 C 10,0 C 69 % 0 lf 1027,9 hPa 0,0 l/m 2 min 0 min 664 W/m 6,3 km/h (2 Bft) 93,62 %
10.03.2017 12:24 10,7 C 22,8 C 10,0 C 69 % 0 lf 1027,9 hPa 0,0 l/m 2 min 0 min 673 W/m 6,3 km/h (2 Bft) 95,65 %
10.03.2017 12:26 10,8 C 22,2 C 10,0 C 69 % 0 lf 1027,8 hPa 0,0 l/m 2 min 0 min 675 W/m 8,4 km/h (2 Bft) 97,87 %
10.03.2017 12:28 10,9 C 22,2 C 10,0 C 69 % 0 lf 1027,8 hPa 0,0 l/m 2 min 0 min 672 W/m 6,3 km/h (2 Bft) 97,87 %
10.03.2017 12:30 10,9 C 17,8 C 10,0 C 68 % 0 lf 1027,8 hPa 0,0 l/m 2 min 0 min 533 W/m 10,5 km/h (2 Bft) 97,87 %
10.03.2017 12:32 10,9 C 18,3 C 10,0 C 67 % 0 lf 1027,8 hPa 0,0 l/m 2 min 0 min 533 W/m 8,4 km/h (2 Bft) 95,74 %
10.03.2017 12:34 10,8 C 20,6 C 9,4 C 67 % 0 lf 1027,8 hPa 0,0 l/m 2 min 0 min 555 W/m 4,2 km/h (1 Bft) 97,87 %
10.03.2017 12:36 10,8 C 21,1 C 9,4 C 67 % 0 lf 1027,8 hPa 0,0 l/m 2 min 0 min 580 W/m 6,3 km/h (2 Bft) 97,83 %
10.03.2017 12:38 10,8 C 20,6 C 10,0 C 67 % 0 lf 1027,7 hPa 0,0 l/m 2 min 0 min 635 W/m 10,5 km/h (2 Bft) 95,74 %
10.03.2017 12:40 10,9 C 21,7 C 10,0 C 67 % 0 lf 1027,7 hPa 0,0 l/m 2 min 0 min 660 W/m 6,3 km/h (2 Bft) 95,74 %
10.03.2017 12:42 10,9 C 22,2 C 10,0 C 66 % 0 lf 1027,7 hPa 0,0 l/m 2 min 0 min 709 W/m 8,4 km/h (2 Bft) 97,87 %
10.03.2017 12:44 11,0 C 23,9 C 9,4 C 66 % 0 lf 1027,7 hPa 0,0 l/m 2 min 0 min 782 W/m 4,2 km/h (1 Bft) 97,87 %
10.03.2017 12:46 11,1 C 21,1 C 9,4 C 66 % 0 lf 1027,7 hPa 0,0 l/m 2 min 0 min 789 W/m 6,3 km/h (2 Bft) 95,74 %
10.03.2017 12:48 11,1 C 22,2 C 9,4 C 64 % 0 lf 1027,6 hPa 0,0 l/m 2 min 0 min 796 W/m 6,3 km/h (2 Bft) 95,65 %
10.03.2017 12:50 11,2 C 23,9 C 9,4 C 64 % 0 lf 1027,6 hPa 0,0 l/m 2 min 0 min 609 W/m 12,6 km/h (3 Bft) 97,87 %
10.03.2017 12:52 11,3 C 22,2 C 9,4 C 64 % 0 lf 1027,6 hPa 0,0 l/m 2 min 0 min 609 W/m 16,7 km/h (3 Bft) 95,74 %
10.03.2017 12:54 11,4 C 22,2 C 9,4 C 64 % 0 lf 1027,6 hPa 0,0 l/m 2 min 0 min 609 W/m 10,5 km/h (2 Bft) 97,87 %
10.03.2017 12:56 11,4 C 23,3 C 9,4 C 64 % 0 lf 1027,6 hPa 0,0 l/m 2 min 0 min 609 W/m 10,5 km/h (2 Bft) 97,87 %
10.03.2017 12:58 11,6 C 22,8 C 9,4 C 63 % 0 lf 1027,6 hPa 0,0 l/m 2 min 0 min 608 W/m 10,5 km/h (2 Bft) 95,74 %
10.03.2017 13:00 11,6 C 19,4 C 9,4 C 61 % 0 lf 1027,7 hPa 0,0 l/m 2 min 0 min 608 W/m 10,5 km/h (2 Bft) 97,83 %
10.03.2017 13:02 11,7 C 18,9 C 9,4 C 61 % 0 lf 1027,6 hPa 0,0 l/m 2 min 0 min 791 W/m 12,6 km/h (3 Bft) 97,87 %
10.03.2017 13:04 11,7 C 18,9 C 9,4 C 62 % 0 lf 1027,6 hPa 0,0 l/m 2 min 0 min 560 W/m 6,3 km/h (2 Bft) 93,62 %
10.03.2017 13:06 11,8 C 17,8 C 9,4 C 62 % 0 lf 1027,6 hPa 0,0 l/m 2 min 0 min 589 W/m 6,3 km/h (2 Bft) 97,87 %
10.03.2017 13:08 11,8 C 20,0 C 8,9 C 62 % 0 lf 1027,6 hPa 0,0 l/m 2 min 0 min 608 W/m 8,4 km/h (2 Bft) 93,62 %
10.03.2017 13:10 11,9 C 21,1 C 9,4 C 62 % 0 lf 1027,6 hPa 0,0 l/m 2 min 0 min 641 W/m 10,5 km/h (2 Bft) 95,65 %
10.03.2017 13:12 11,9 C 22,8 C 8,9 C 61 % 0 lf 1027,6 hPa 0,0 l/m 2 min 0 min 627 W/m 6,3 km/h (2 Bft) 91,49 %
10.03.2017 13:14 11,8 C 23,9 C 8,9 C 61 % 0 lf 1027,6 hPa 0,0 l/m 2 min 0 min 620 W/m 8,4 km/h (2 Bft) 95,74 %
10.03.2017 13:16 11,8 C 21,7 C 9,4 C 62 % 0 lf 1027,6 hPa 0,0 l/m 2 min 0 min 613 W/m 8,4 km/h (2 Bft) 93,62 %
10.03.2017 13:18 11,8 C 20,6 C 9,4 C 61 % 0 lf 1027,5 hPa 0,0 l/m 2 min 0 min 609 W/m 10,5 km/h (2 Bft) 91,49 %
10.03.2017 13:20 11,9 C 21,7 C 9,4 C 63 % 0 lf 1027,6 hPa 0,0 l/m 2 min 0 min 602 W/m 12,6 km/h (3 Bft) 93,62 %
10.03.2017 13:22 11,9 C 21,1 C 8,9 C 61 % 0 lf 1027,6 hPa 0,0 l/m 2 min 0 min 592 W/m 12,6 km/h (3 Bft) 93,48 %
10.03.2017 13:24 11,8 C 22,2 C 8,9 C 61 % 0 lf 1027,6 hPa 0,0 l/m 2 min 0 min 592 W/m 8,4 km/h (2 Bft) 89,36 %
10.03.2017 13:26 11,7 C 22,2 C 8,9 C 61 % 0 lf 1027,6 hPa 0,0 l/m 2 min 0 min 594 W/m 8,4 km/h (2 Bft) 93,62 %
10.03.2017 13:28 11,7 C 22,2 C 8,9 C 60 % 0 lf 1027,5 hPa 0,0 l/m 2 min 0 min 597 W/m 10,5 km/h (2 Bft) 95,74 %
10.03.2017 13:30 11,6 C 23,3 C 8,9 C 61 % 0 lf 1027,5 hPa 0,0 l/m 2 min 0 min 597 W/m 6,3 km/h (2 Bft) 95,74 %
10.03.2017 13:32 11,6 C 23,3 C 8,9 C 61 % 0 lf 1027,5 hPa 0,0 l/m 2 min 0 min 597 W/m 10,5 km/h (2 Bft) 95,74 %
10.03.2017 13:34 11,5 C 23,3 C 8,9 C 62 % 0 lf 1027,5 hPa 0,0 l/m 2 min 0 min 596 W/m 10,5 km/h (2 Bft) 93,62 %
10.03.2017 13:36 11,4 C 22,8 C 8,9 C 61 % 0 lf 1027,4 hPa 0,0 l/m 2 min 0 min 594 W/m 8,4 km/h (2 Bft) 91,30 %
10.03.2017 13:38 11,4 C 21,7 C 8,9 C 62 % 0 lf 1027,4 hPa 0,0 l/m 2 min 0 min 589 W/m 10,5 km/h (2 Bft) 95,74 %
10.03.2017 13:40 11,4 C 20,6 C 9,4 C 61 % 0 lf 1027,4 hPa 0,0 l/m 2 min 0 min 597 W/m 6,3 km/h (2 Bft) 93,62 %
10.03.2017 13:42 11,5 C 20,6 C 9,4 C 61 % 0 lf 1027,4 hPa 0,0 l/m 2 min 0 min 601 W/m 8,4 km/h (2 Bft) 95,74 %
10.03.2017 13:44 11,5 C 18,9 C 9,4 C 60 % 0 lf 1027,4 hPa 0,0 l/m 2 min 0 min 592 W/m 10,5 km/h (2 Bft) 95,74 %
10.03.2017 13:46 11,6 C 19,4 C 9,4 C 60 % 0 lf 1027,3 hPa 0,0 l/m 2 min 0 min 593 W/m 10,5 km/h (2 Bft) 93,48 %
10.03.2017 13:48 11,6 C 18,3 C 10,0 C 59 % 0 lf 1027,3 hPa 0,0 l/m 2 min 0 min 599 W/m 8,4 km/h (2 Bft) 91,49 %
10.03.2017 13:50 11,7 C 18,9 C 10,0 C 60 % 0 lf 1027,2 hPa 0,0 l/m 2 min 0 min 596 W/m 8,4 km/h (2 Bft) 97,87 %
10.03.2017 13:52 11,7 C 20,6 C 9,4 C 60 % 0 lf 1027,2 hPa 0,0 l/m 2 min 0 min 590 W/m 14,6 km/h (3 Bft) 93,62 %
10.03.2017 13:54 11,7 C 20,6 C 9,4 C 60 % 0 lf 1027,2 hPa 0,0 l/m 2 min 0 min 610 W/m 10,5 km/h (2 Bft) 93,62 %
10.03.2017 13:56 11,8 C 21,7 C 10,0 C 61 % 0 lf 1027,2 hPa 0,0 l/m 2 min 0 min 570 W/m 8,4 km/h (2 Bft) 95,74 %
10.03.2017 13:58 11,8 C 22,2 C 9,4 C 61 % 0 lf 1027,2 hPa 0,0 l/m 2 min 0 min 544 W/m 8,4 km/h (2 Bft) 97,83 %
10.03.2017 14:00 11,8 C 23,3 C 9,4 C 60 % 0 lf 1027,1 hPa 0,0 l/m 2 min 0 min 573 W/m 6,3 km/h (2 Bft) 97,87 %
10.03.2017 14:02 11,8 C 20,6 C 9,4 C 60 % 0 lf 1027,1 hPa 0,0 l/m 2 min 0 min 428 W/m 6,3 km/h (2 Bft) 95,74 %
10.03.2017 14:04 11,8 C 17,8 C 9,4 C 59 % 0 lf 1027,1 hPa 0,0 l/m 2 min 0 min 307 W/m 8,4 km/h (2 Bft) 97,87 %
10.03.2017 14:06 11,8 C 16,1 C 9,4 C 61 % 0 lf 1027,1 hPa 0,0 l/m 2 min 0 min 277 W/m 8,4 km/h (2 Bft) 95,74 %
10.03.2017 14:08 11,8 C 16,7 C 9,4 C 61 % 0 lf 1027,1 hPa 0,0 l/m 2 min 0 min 332 W/m 8,4 km/h (2 Bft) 97,87 %
10.03.2017 14:10 11,8 C 18,3 C 9,4 C 61 % 0 lf 1027,1 hPa 0,0 l/m 2 min 0 min 401 W/m 12,6 km/h (3 Bft) 97,83 %
10.03.2017 14:12 11,7 C 18,3 C 9,4 C 61 % 0 lf 1027,0 hPa 0,0 l/m 2 min 0 min 475 W/m 10,5 km/h (2 Bft) 100,00 %
10.03.2017 14:14 11,7 C 18,3 C 9,4 C 61 % 0 lf 1027,0 hPa 0,0 l/m 2 min 0 min 420 W/m 10,5 km/h (2 Bft) 93,62 %
10.03.2017 14:16 11,7 C 18,9 C 9,4 C 61 % 0 lf 1026,9 hPa 0,0 l/m 2 min 0 min 339 W/m 6,3 km/h (2 Bft) 95,74 %
10.03.2017 14:18 11,7 C 18,9 C 10,0 C 62 % 0 lf 1026,8 hPa 0,0 l/m 2 min 0 min 410 W/m 12,6 km/h (3 Bft) 97,87 %
10.03.2017 14:20 11,7 C 20,0 C 10,0 C 62 % 0 lf 1026,9 hPa 0,0 l/m 2 min 0 min 442 W/m 8,4 km/h (2 Bft) 93,62 %
10.03.2017 14:22 11,7 C 21,7 C 10,0 C 62 % 0 lf 1026,8 hPa 0,0 l/m 2 min 0 min 465 W/m 10,5 km/h (2 Bft) 91,30 %
10.03.2017 14:24 11,7 C 22,2 C 10,0 C 62 % 0 lf 1026,8 hPa 0,0 l/m 2 min 0 min 452 W/m 6,3 km/h (2 Bft) 93,62 %
10.03.2017 14:26 11,7 C 22,2 C 10,0 C 63 % 0 lf 1026,7 hPa 0,0 l/m 2 min 0 min 523 W/m 8,4 km/h (2 Bft) 97,87 %
10.03.2017 14:28 11,7 C 22,8 C 10,0 C 62 % 0 lf 1026,7 hPa 0,0 l/m 2 min 0 min 546 W/m 4,2 km/h (1 Bft) 97,87 %
10.03.2017 14:30 11,7 C 23,9 C 10,0 C 61 % 0 lf 1026,7 hPa 0,0 l/m 2 min 0 min 491 W/m 4,2 km/h (1 Bft) 95,74 %
10.03.2017 14:32 11,8 C 23,3 C 11,1 C 62 % 0 lf 1026,7 hPa 0,0 l/m 2 min 0 min 531 W/m 8,4 km/h (2 Bft) 97,87 %
10.03.2017 14:34 11,8 C 23,3 C 11,7 C 62 % 0 lf 1026,7 hPa 0,0 l/m 2 min 0 min 523 W/m 8,4 km/h (2 Bft) 97,83 %
10.03.2017 14:36 11,8 C 24,4 C 12,2 C 62 % 0 lf 1026,7 hPa 0,0 l/m 2 min 0 min 520 W/m 6,3 km/h (2 Bft) 93,62 %
10.03.2017 14:38 11,8 C 24,4 C 12,2 C 61 % 0 lf 1026,7 hPa 0,0 l/m 2 min 0 min 515 W/m 6,3 km/h (2 Bft) 93,62 %
10.03.2017 14:40 11,8 C 23,9 C 12,8 C 61 % 0 lf 1026,8 hPa 0,0 l/m 2 min 0 min 516 W/m 8,4 km/h (2 Bft) 93,62 %
10.03.2017 14:42 11,8 C 22,8 C 13,3 C 61 % 0 lf 1026,8 hPa 0,0 l/m 2 min 0 min 524 W/m 8,4 km/h (2 Bft) 95,74 %
10.03.2017 14:44 11,8 C 22,8 C 12,8 C 61 % 0 lf 1026,8 hPa 0,0 l/m 2 min 0 min 534 W/m 10,5 km/h (2 Bft) 93,62 %
10.03.2017 14:46 11,8 C 22,2 C 11,7 C 60 % 0 lf 1026,8 hPa 0,0 l/m 2 min 0 min 539 W/m 8,4 km/h (2 Bft) 97,83 %
10.03.2017 14:48 11,7 C 22,2 C 11,1 C 60 % 0 lf 1026,7 hPa 0,0 l/m 2 min 0 min 547 W/m 8,4 km/h (2 Bft) 95,74 %
10.03.2017 14:50 11,7 C 22,2 C 11,7 C 60 % 0 lf 1026,7 hPa 0,0 l/m 2 min 0 min 534 W/m 8,4 km/h (2 Bft) 97,87 %
10.03.2017 14:52 11,7 C 20,0 C 11,7 C 61 % 0 lf 1026,7 hPa 0,0 l/m 2 min 0 min 496 W/m 10,5 km/h (2 Bft) 97,87 %
10.03.2017 14:54 11,7 C 18,9 C 11,7 C 62 % 0 lf 1026,7 hPa 0,0 l/m 2 min 0 min 359 W/m 10,5 km/h (2 Bft) 95,74 %
10.03.2017 14:56 11,7 C 18,3 C 11,1 C 61 % 0 lf 1026,7 hPa 0,0 l/m 2 min 0 min 399 W/m 4,2 km/h (1 Bft) 93,48 %
10.03.2017 14:58 11,7 C 17,8 C 11,1 C 62 % 0 lf 1026,6 hPa 0,0 l/m 2 min 0 min 288 W/m 6,3 km/h (2 Bft) 95,74 %
10.03.2017 15:00 11,7 C 17,2 C 11,1 C 61 % 0 lf 1026,7 hPa 0,0 l/m 2 min 0 min 269 W/m 8,4 km/h (2 Bft) 100,00 %
10.03.2017 15:02 11,6 C 16,1 C 10,6 C 61 % 0 lf 1026,7 hPa 0,0 l/m 2 min 0 min 277 W/m 10,5 km/h (2 Bft) 100,00 %
10.03.2017 15:04 11,6 C 16,1 C 10,6 C 61 % 0 lf 1026,7 hPa 0,0 l/m 2 min 0 min 293 W/m 8,4 km/h (2 Bft) 97,87 %
10.03.2017 15:06 11,6 C 16,7 C 10,6 C 62 % 0 lf 1026,7 hPa 0,0 l/m 2 min 0 min 336 W/m 4,2 km/h (1 Bft) 100,00 %
10.03.2017 15:08 11,5 C 16,7 C 11,1 C 62 % 0 lf 1026,6 hPa 0,0 l/m 2 min 0 min 316 W/m 8,4 km/h (2 Bft) 100,00 %
10.03.2017 15:10 11,5 C 16,7 C 11,1 C 62 % 0 lf 1026,6 hPa 0,0 l/m 2 min 0 min 307 W/m 10,5 km/h (2 Bft) 97,87 %
10.03.2017 15:12 11,4 C 16,1 C 10,6 C 61 % 0 lf 1026,7 hPa 0,0 l/m 2 min 0 min 316 W/m 8,4 km/h (2 Bft) 95,74 %
10.03.2017 15:14 11,4 C 16,7 C 10,6 C 60 % 0 lf 1026,5 hPa 0,0 l/m 2 min 0 min 336 W/m 6,3 km/h (2 Bft) 97,87 %
10.03.2017 15:16 11,4 C 17,2 C 10,6 C 60 % 0 lf 1026,5 hPa 0,0 l/m 2 min 0 min 333 W/m 4,2 km/h (1 Bft) 97,87 %
10.03.2017 15:18 11,3 C 17,2 C 11,1 C 60 % 0 lf 1026,4 hPa 0,0 l/m 2 min 0 min 412 W/m 4,2 km/h (1 Bft) 97,87 %
10.03.2017 15:20 11,4 C 17,2 C 11,1 C 61 % 0 lf 1026,3 hPa 0,0 l/m 2 min 0 min 501 W/m 10,5 km/h (2 Bft) 95,65 %
10.03.2017 15:22 11,3 C 15,6 C 11,1 C 60 % 0 lf 1026,2 hPa 0,0 l/m 2 min 0 min 388 W/m 6,3 km/h (2 Bft) 95,74 %
10.03.2017 15:24 11,3 C 16,7 C 11,1 C 61 % 0 lf 1026,1 hPa 0,0 l/m 2 min 0 min 332 W/m 4,2 km/h (1 Bft) 97,87 %
10.03.2017 15:26 11,3 C 16,7 C 11,1 C 61 % 0 lf 1026,1 hPa 0,0 l/m 2 min 0 min 396 W/m 4,2 km/h (1 Bft) 97,87 %
10.03.2017 15:28 11,3 C 16,1 C 11,1 C 61 % 0 lf 1026,1 hPa 0,0 l/m 2 min 0 min 354 W/m 10,5 km/h (2 Bft) 97,87 %
10.03.2017 15:30 11,4 C 17,2 C 10,6 C 61 % 0 lf 1026,1 hPa 0,0 l/m 2 min 0 min 415 W/m 6,3 km/h (2 Bft) 95,74 %
10.03.2017 15:31 11,4 C 18,3 C 10,6 C 61 % 0 lf 1026,1 hPa 0,0 l/m 1 min 0 min 380 W/m 8,4 km/h (2 Bft) 95,65 %
10.03.2017 15:32 11,4 C 17,2 C 10,6 C 61 % 0 lf 1026,2 hPa 0,0 l/m 1 min 0 min 327 W/m 6,3 km/h (2 Bft) 100,00 %
10.03.2017 15:33 11,4 C 17,2 C 10,6 C 62 % 0 lf 1026,3 hPa 0,0 l/m 1 min 0 min 360 W/m 6,3 km/h (2 Bft) 95,65 %
10.03.2017 15:34 11,4 C 17,2 C 10,6 C 62 % 0 lf 1026,3 hPa 0,0 l/m 1 min 0 min 311 W/m 4,2 km/h (1 Bft) 95,65 %
10.03.2017 15:35 11,4 C 17,2 C 10,6 C 62 % 0 lf 1026,3 hPa 0,0 l/m 1 min 0 min 257 W/m 10,5 km/h (2 Bft) 100,00 %
10.03.2017 15:36 11,4 C 17,2 C 10,6 C 62 % 0 lf 1026,3 hPa 0,0 l/m 1 min 0 min 244 W/m 12,6 km/h (3 Bft) 95,65 %
10.03.2017 15:37 11,5 C 16,7 C 10,6 C 63 % 0 lf 1026,4 hPa 0,0 l/m 1 min 0 min 223 W/m 10,5 km/h (2 Bft) 100,00 %
10.03.2017 15:38 11,5 C 16,1 C 10,6 C 63 % 0 lf 1026,4 hPa 0,0 l/m 1 min 0 min 220 W/m 8,4 km/h (2 Bft) 95,65 %
10.03.2017 15:39 11,5 C 15,6 C 10,6 C 62 % 0 lf 1026,3 hPa 0,0 l/m 1 min 0 min 216 W/m 4,2 km/h (1 Bft) 100,00 %
10.03.2017 15:40 11,5 C 15,0 C 10,6 C 62 % 0 lf 1026,3 hPa 0,0 l/m 1 min 0 min 218 W/m 6,3 km/h (2 Bft) 95,65 %
10.03.2017 15:41 11,5 C 15,6 C 10,6 C 62 % 0 lf 1026,3 hPa 0,0 l/m 1 min 0 min 230 W/m 6,3 km/h (2 Bft) 95,65 %
10.03.2017 15:42 11,5 C 15,6 C 10,6 C 62 % 0 lf 1026,3 hPa 0,0 l/m 1 min 0 min 230 W/m 6,3 km/h (2 Bft) 95,65 %
10.03.2017 15:43 11,6 C 15,6 C 10,6 C 62 % 0 lf 1026,3 hPa 0,0 l/m 1 min 0 min 236 W/m 6,3 km/h (2 Bft) 100,00 %
10.03.2017 15:44 11,6 C 15,6 C 10,6 C 62 % 0 lf 1026,3 hPa 0,0 l/m 1 min 0 min 244 W/m 8,4 km/h (2 Bft) 100,00 %
10.03.2017 15:46 11,6 C 15,0 C 10,6 C 61 % 0 lf 1026,3 hPa 0,0 l/m 2 min 0 min 257 W/m 8,4 km/h (2 Bft) 90,91 %
10.03.2017 15:48 11,5 C 15,0 C 10,6 C 61 % 0 lf 1026,3 hPa 0,0 l/m 2 min 0 min 249 W/m 4,2 km/h (1 Bft) 95,65 %
10.03.2017 15:50 11,5 C 15,0 C 10,6 C 62 % 0 lf 1026,3 hPa 0,0 l/m 2 min 0 min 227 W/m 4,2 km/h (1 Bft) 97,87 %
10.03.2017 15:52 11,5 C 14,4 C 10,6 C 61 % 0 lf 1026,2 hPa 0,0 l/m 2 min 0 min 217 W/m 10,5 km/h (2 Bft) 97,87 %
10.03.2017 15:54 11,4 C 13,9 C 10,6 C 61 % 0 lf 1026,1 hPa 0,0 l/m 2 min 0 min 211 W/m 10,5 km/h (2 Bft) 97,87 %
10.03.2017 15:56 11,4 C 13,9 C 10,6 C 61 % 0 lf 1026,1 hPa 0,0 l/m 2 min 0 min 208 W/m 8,4 km/h (2 Bft) 97,87 %
10.03.2017 15:58 11,4 C 13,9 C 10,6 C 61 % 0 lf 1026,2 hPa 0,0 l/m 2 min 0 min 204 W/m 10,5 km/h (2 Bft) 95,74 %
10.03.2017 16:00 11,3 C 13,3 C 10,6 C 61 % 0 lf 1026,2 hPa 0,0 l/m 2 min 0 min 201 W/m 12,6 km/h (3 Bft) 95,65 %
10.03.2017 16:02 11,3 C 13,3 C 10,6 C 61 % 0 lf 1026,1 hPa 0,0 l/m 2 min 0 min 205 W/m 8,4 km/h (2 Bft) 95,74 %
10.03.2017 16:04 11,2 C 13,3 C 10,6 C 61 % 0 lf 1026,0 hPa 0,0 l/m 2 min 0 min 213 W/m 8,4 km/h (2 Bft) 93,62 %
10.03.2017 16:06 11,2 C 13,3 C 10,6 C 61 % 0 lf 1026,0 hPa 0,0 l/m 2 min 0 min 216 W/m 8,4 km/h (2 Bft) 95,74 %
10.03.2017 16:08 11,2 C 13,9 C 10,6 C 62 % 0 lf 1026,1 hPa 0,0 l/m 2 min 0 min 217 W/m 6,3 km/h (2 Bft) 97,87 %
10.03.2017 16:10 11,1 C 13,9 C 10,6 C 62 % 0 lf 1026,0 hPa 0,0 l/m 2 min 0 min 214 W/m 8,4 km/h (2 Bft) 97,87 %
10.03.2017 16:12 11,1 C 13,9 C 10,6 C 62 % 0 lf 1026,0 hPa 0,0 l/m 2 min 0 min 212 W/m 8,4 km/h (2 Bft) 95,65 %
10.03.2017 16:14 11,1 C 13,9 C 10,0 C 61 % 0 lf 1026,0 hPa 0,0 l/m 2 min 0 min 210 W/m 10,5 km/h (2 Bft) 95,74 %
10.03.2017 16:16 11,0 C 13,9 C 10,0 C 61 % 0 lf 1026,0 hPa 0,0 l/m 2 min 0 min 212 W/m 10,5 km/h (2 Bft) 97,87 %
10.03.2017 16:18 11,0 C 13,9 C 10,0 C 61 % 0 lf 1026,0 hPa 0,0 l/m 2 min 0 min 223 W/m 12,6 km/h (3 Bft) 97,87 %
10.03.2017 16:20 10,9 C 13,9 C 10,0 C 62 % 0 lf 1026,0 hPa 0,0 l/m 2 min 0 min 198 W/m 10,5 km/h (2 Bft) 93,62 %
10.03.2017 16:22 10,9 C 13,3 C 10,0 C 62 % 0 lf 1026,0 hPa 0,0 l/m 2 min 0 min 163 W/m 10,5 km/h (2 Bft) 93,62 %
10.03.2017 16:24 10,9 C 12,8 C 10,0 C 62 % 0 lf 1026,0 hPa 0,0 l/m 0 min 0 min 139 W/m 8,4 km/h (2 Bft) 93,48 %
10.03.2017 16:26 10,8 C 12,8 C 9,4 C 63 % 0 lf 1026,0 hPa 0,0 l/m 0 min 0 min 115 W/m 6,3 km/h (2 Bft) 95,74 %
10.03.2017 16:28 10,8 C 12,8 C 9,4 C 62 % 0 lf 1025,9 hPa 0,0 l/m 0 min 0 min 110 W/m 6,3 km/h (2 Bft) 97,87 %
10.03.2017 16:30 10,8 C 12,8 C 9,4 C 62 % 0 lf 1025,9 hPa 0,0 l/m 0 min 0 min 107 W/m 4,2 km/h (1 Bft) 93,62 %
10.03.2017 16:32 10,8 C 12,2 C 8,9 C 63 % 0 lf 1025,9 hPa 0,0 l/m 0 min 0 min 106 W/m 12,6 km/h (3 Bft) 97,87 %
10.03.2017 16:34 10,7 C 12,2 C 8,9 C 63 % 0 lf 1025,9 hPa 0,0 l/m 0 min 0 min 106 W/m 10,5 km/h (2 Bft) 97,87 %
10.03.2017 16:36 10,7 C 12,2 C 8,9 C 63 % 0 lf 1025,8 hPa 0,0 l/m 0 min 0 min 107 W/m 8,4 km/h (2 Bft) 93,48 %
10.03.2017 16:38 10,7 C 12,2 C 8,9 C 63 % 0 lf 1025,9 hPa 0,0 l/m 0 min 0 min 111 W/m 6,3 km/h (2 Bft) 95,74 %
10.03.2017 16:40 10,6 C 12,8 C 8,9 C 63 % 0 lf 1025,8 hPa 0,0 l/m 0 min 0 min 110 W/m 6,3 km/h (2 Bft) 95,74 %
10.03.2017 16:42 10,6 C 12,8 C 8,9 C 63 % 0 lf 1026,0 hPa 0,0 l/m 0 min 0 min 122 W/m 8,4 km/h (2 Bft) 93,62 %
10.03.2017 16:44 10,6 C 12,8 C 8,3 C 63 % 0 lf 1025,9 hPa 0,0 l/m 0 min 0 min 111 W/m 6,3 km/h (2 Bft) 97,87 %
10.03.2017 16:46 10,6 C 12,8 C 8,3 C 63 % 0 lf 1025,9 hPa 0,0 l/m 0 min 0 min 94 W/m 10,5 km/h (2 Bft) 97,83 %
10.03.2017 16:48 10,5 C 12,8 C 8,3 C 63 % 0 lf 1025,9 hPa 0,0 l/m 0 min 0 min 103 W/m 8,4 km/h (2 Bft) 93,62 %
10.03.2017 16:50 10,5 C 13,3 C 8,3 C 63 % 0 lf 1025,9 hPa 0,0 l/m 2 min 0 min 136 W/m 10,5 km/h (2 Bft) 93,62 %
10.03.2017 16:52 10,4 C 13,9 C 8,3 C 64 % 0 lf 1025,9 hPa 0,0 l/m 2 min 0 min 132 W/m 12,6 km/h (3 Bft) 95,74 %
10.03.2017 16:54 10,4 C 13,3 C 8,3 C 64 % 0 lf 1025,9 hPa 0,0 l/m 0 min 0 min 88 W/m 8,4 km/h (2 Bft) 87,23 %
10.03.2017 16:56 10,4 C 13,3 C 8,3 C 64 % 0 lf 1025,9 hPa 0,0 l/m 0 min 0 min 83 W/m 6,3 km/h (2 Bft) 93,62 %
10.03.2017 16:58 10,4 C 13,9 C 8,3 C 64 % 0 lf 1025,9 hPa 0,0 l/m 2 min 0 min 135 W/m 6,3 km/h (2 Bft) 93,48 %
10.03.2017 17:00 10,4 C 14,4 C 8,3 C 64 % 0 lf 1025,9 hPa 0,0 l/m 2 min 0 min 125 W/m 8,4 km/h (2 Bft) 97,87 %
10.03.2017 17:02 10,4 C 15,6 C 8,3 C 64 % 0 lf 1025,9 hPa 0,0 l/m 2 min 0 min 131 W/m 10,5 km/h (2 Bft) 93,62 %
10.03.2017 17:04 10,4 C 14,4 C 8,3 C 64 % 0 lf 1025,8 hPa 0,0 l/m 0 min 0 min 92 W/m 8,4 km/h (2 Bft) 95,74 %
10.03.2017 17:06 10,3 C 12,8 C 8,3 C 63 % 0 lf 1025,8 hPa 0,0 l/m 0 min 0 min 41 W/m 6,3 km/h (2 Bft) 95,74 %
10.03.2017 17:08 10,3 C 12,2 C 7,8 C 63 % 0 lf 1025,8 hPa 0,0 l/m 0 min 0 min 38 W/m 6,3 km/h (2 Bft) 95,74 %
10.03.2017 17:10 10,3 C 11,1 C 7,8 C 63 % 0 lf 1025,9 hPa 0,0 l/m 0 min 0 min 34 W/m 8,4 km/h (2 Bft) 93,48 %
10.03.2017 17:12 10,3 C 11,1 C 7,8 C 63 % 0 lf 1025,9 hPa 0,0 l/m 0 min 0 min 33 W/m 8,4 km/h (2 Bft) 93,62 %
10.03.2017 17:14 10,3 C 10,6 C 7,8 C 63 % 0 lf 1025,9 hPa 0,0 l/m 0 min 0 min 32 W/m 6,3 km/h (2 Bft) 93,62 %
10.03.2017 17:16 10,2 C 10,0 C 7,8 C 63 % 0 lf 1026,0 hPa 0,0 l/m 0 min 0 min 32 W/m 6,3 km/h (2 Bft) 95,74 %
10.03.2017 17:18 10,2 C 10,0 C 7,8 C 63 % 0 lf 1026,0 hPa 0,0 l/m 0 min 0 min 32 W/m 4,2 km/h (1 Bft) 95,74 %
10.03.2017 17:20 10,2 C 10,0 C 7,8 C 63 % 0 lf 1026,0 hPa 0,0 l/m 0 min 0 min 30 W/m 6,3 km/h (2 Bft) 95,74 %
10.03.2017 17:22 10,1 C 9,4 C 7,8 C 63 % 0 lf 1026,0 hPa 0,0 l/m 0 min 0 min 30 W/m 8,4 km/h (2 Bft) 89,13 %
10.03.2017 17:24 10,1 C 9,4 C 7,2 C 63 % 0 lf 1026,0 hPa 0,0 l/m 0 min 0 min 31 W/m 6,3 km/h (2 Bft) 93,62 %
10.03.2017 17:26 10,1 C 9,4 C 7,2 C 63 % 0 lf 1026,0 hPa 0,0 l/m 0 min 0 min 30 W/m 6,3 km/h (2 Bft) 95,74 %
10.03.2017 17:28 10,0 C 9,4 C 7,2 C 63 % 0 lf 1026,0 hPa 0,0 l/m 0 min 0 min 30 W/m 6,3 km/h (2 Bft) 91,49 %
10.03.2017 17:30 9,9 C 9,4 C 7,2 C 64 % 0 lf 1025,9 hPa 0,0 l/m 0 min 0 min 31 W/m 6,3 km/h (2 Bft) 91,49 %
10.03.2017 17:32 9,9 C 9,4 C 7,2 C 64 % 0 lf 1025,8 hPa 0,0 l/m 0 min 0 min 30 W/m 6,3 km/h (2 Bft) 93,62 %
10.03.2017 17:34 9,9 C 8,9 C 7,2 C 64 % 0 lf 1025,8 hPa 0,0 l/m 0 min 0 min 32 W/m 6,3 km/h (2 Bft) 93,48 %
10.03.2017 17:36 9,8 C 8,9 C 6,7 C 65 % 0 lf 1025,8 hPa 0,0 l/m 0 min 0 min 31 W/m 4,2 km/h (1 Bft) 95,74 %
10.03.2017 17:38 9,8 C 8,9 C 6,7 C 65 % 0 lf 1025,9 hPa 0,0 l/m 0 min 0 min 29 W/m 4,2 km/h (1 Bft) 100,00 %
10.03.2017 17:40 9,7 C 8,9 C 6,7 C 66 % 0 lf 1025,9 hPa 0,0 l/m 0 min 0 min 28 W/m 6,3 km/h (2 Bft) 97,87 %
10.03.2017 17:42 9,7 C 8,9 C 6,1 C 66 % 0 lf 1025,9 hPa 0,0 l/m 0 min 0 min 28 W/m 6,3 km/h (2 Bft) 95,74 %
10.03.2017 17:44 9,7 C 8,9 C 6,1 C 66 % 0 lf 1025,9 hPa 0,0 l/m 0 min 0 min 29 W/m 6,3 km/h (2 Bft) 91,49 %
10.03.2017 17:46 9,6 C 8,9 C 6,1 C 66 % 0 lf 1025,9 hPa 0,0 l/m 0 min 0 min 33 W/m 6,3 km/h (2 Bft) 91,30 %
10.03.2017 17:48 9,6 C 8,9 C 6,1 C 66 % 0 lf 1025,9 hPa 0,0 l/m 0 min 0 min 35 W/m 6,3 km/h (2 Bft) 100,00 %
10.03.2017 17:50 9,4 C 8,9 C 6,1 C 66 % 0 lf 1025,9 hPa 0,0 l/m 0 min 0 min 39 W/m 4,2 km/h (1 Bft) 100,00 %
10.03.2017 17:52 9,4 C 8,9 C 6,1 C 66 % 0 lf 1025,9 hPa 0,0 l/m 0 min 0 min 39 W/m 4,2 km/h (1 Bft) 97,87 %
10.03.2017 17:54 9,4 C 8,9 C 6,1 C 66 % 0 lf 1025,9 hPa 0,0 l/m 0 min 0 min 41 W/m 6,3 km/h (2 Bft) 97,87 %
10.03.2017 17:56 9,3 C 8,9 C 6,7 C 66 % 0 lf 1025,9 hPa 0,0 l/m 2 min 0 min 44 W/m 4,2 km/h (1 Bft) 100,00 %
10.03.2017 17:58 9,3 C 8,9 C 6,7 C 66 % 0 lf 1025,8 hPa 0,0 l/m 2 min 0 min 44 W/m 6,3 km/h (2 Bft) 97,83 %
10.03.2017 18:00 9,2 C 8,9 C 6,7 C 66 % 0 lf 1025,8 hPa 0,0 l/m 2 min 0 min 41 W/m 6,3 km/h (2 Bft) 97,87 %
10.03.2017 18:02 9,2 C 8,9 C 6,1 C 66 % 0 lf 1025,8 hPa 0,0 l/m 2 min 0 min 40 W/m 8,4 km/h (2 Bft) 95,74 %
10.03.2017 18:04 9,2 C 8,3 C 6,1 C 66 % 0 lf 1025,8 hPa 0,0 l/m 2 min 0 min 37 W/m 6,3 km/h (2 Bft) 95,92 %
10.03.2017 18:06 9,2 C 8,3 C 6,1 C 67 % 0 lf 1025,8 hPa 0,0 l/m 2 min 0 min 34 W/m 6,3 km/h (2 Bft) 100,00 %
10.03.2017 18:08 9,1 C 8,3 C 5,6 C 67 % 0 lf 1025,7 hPa 0,0 l/m 2 min 0 min 32 W/m 6,3 km/h (2 Bft) 100,00 %
10.03.2017 18:10 9,1 C 8,3 C 5,6 C 67 % 0 lf 1025,7 hPa 0,0 l/m 2 min 0 min 28 W/m 6,3 km/h (2 Bft) 97,87 %
10.03.2017 18:12 9,1 C 8,3 C 5,6 C 67 % 0 lf 1025,7 hPa 0,0 l/m 2 min 0 min 25 W/m 4,2 km/h (1 Bft) 97,87 %
10.03.2017 18:14 9,1 C 8,3 C 5,6 C 67 % 0 lf 1025,7 hPa 0,0 l/m 2 min 0 min 20 W/m 4,2 km/h (1 Bft) 97,87 %
10.03.2017 18:16 9,0 C 7,8 C 5,6 C 68 % 0 lf 1025,7 hPa 0,0 l/m 0 min 0 min 18 W/m 4,2 km/h (1 Bft) 97,87 %
10.03.2017 18:18 9,0 C 7,8 C 5,0 C 68 % 0 lf 1025,7 hPa 0,0 l/m 0 min 0 min 14 W/m 4,2 km/h (1 Bft) 97,87 %
10.03.2017 18:20 8,9 C 7,8 C 5,0 C 68 % 0 lf 1025,7 hPa 0,0 l/m 0 min 0 min 12 W/m 4,2 km/h (1 Bft) 97,83 %
10.03.2017 18:22 8,9 C 7,8 C 5,0 C 68 % 0 lf 1025,7 hPa 0,0 l/m 0 min 0 min 11 W/m 6,3 km/h (2 Bft) 95,74 %
10.03.2017 18:24 8,9 C 7,8 C 4,4 C 68 % 0 lf 1025,7 hPa 0,0 l/m 0 min 0 min 11 W/m 4,2 km/h (1 Bft) 97,87 %
10.03.2017 18:26 8,8 C 7,8 C 4,4 C 68 % 0 lf 1025,7 hPa 0,0 l/m 0 min 0 min 11 W/m 4,2 km/h (1 Bft) 95,74 %
10.03.2017 18:28 8,8 C 7,8 C 4,4 C 68 % 0 lf 1025,7 hPa 0,0 l/m 0 min 0 min 10 W/m 4,2 km/h (1 Bft) 95,74 %
10.03.2017 18:30 8,8 C 7,2 C 4,4 C 68 % 0 lf 1025,7 hPa 0,0 l/m 0 min 0 min 9 W/m 0,0 km/h (0 Bft) 95,74 %
10.03.2017 18:32 8,7 C 7,2 C 4,4 C 68 % 0 lf 1025,7 hPa 0,0 l/m 0 min 0 min 8 W/m 4,2 km/h (1 Bft) 93,48 %
10.03.2017 18:34 8,7 C 7,2 C 4,4 C 68 % 0 lf 1025,7 hPa 0,0 l/m 0 min 0 min 6 W/m 2,1 km/h (1 Bft) 95,74 %
10.03.2017 18:36 8,7 C 7,2 C 3,9 C 69 % 0 lf 1025,7 hPa 0,0 l/m 0 min 0 min 5 W/m 4,2 km/h (1 Bft) 91,49 %
10.03.2017 18:38 8,6 C 7,2 C 3,9 C 69 % 0 lf 1025,7 hPa 0,0 l/m 0 min 0 min 0 W/m 4,2 km/h (1 Bft) 93,62 %
10.03.2017 18:40 8,6 C 7,2 C 3,9 C 69 % 0 lf 1025,7 hPa 0,0 l/m 0 min 0 min 0 W/m 4,2 km/h (1 Bft) 91,49 %
10.03.2017 18:42 8,5 C 7,2 C 3,9 C 69 % 0 lf 1025,7 hPa 0,0 l/m 0 min 0 min 0 W/m 2,1 km/h (1 Bft) 95,74 %
10.03.2017 18:44 8,5 C 6,7 C 3,9 C 69 % 0 lf 1025,8 hPa 0,0 l/m 0 min 0 min 0 W/m 2,1 km/h (1 Bft) 95,65 %
10.03.2017 18:46 8,4 C 6,7 C 3,9 C 69 % 0 lf 1025,8 hPa 0,0 l/m 0 min 0 min 0 W/m 2,1 km/h (1 Bft) 95,74 %
10.03.2017 18:48 8,4 C 6,7 C 3,9 C 69 % 0 lf 1025,8 hPa 0,0 l/m 0 min 0 min 0 W/m 0,0 km/h (0 Bft) 95,74 %
10.03.2017 18:50 8,3 C 6,7 C 3,3 C 70 % 0 lf 1025,8 hPa 0,0 l/m 0 min 0 min 0 W/m 4,2 km/h (1 Bft) 95,74 %
10.03.2017 18:52 8,3 C 6,1 C 3,3 C 70 % 0 lf 1025,8 hPa 0,0 l/m 0 min 0 min 0 W/m 4,2 km/h (1 Bft) 95,74 %
10.03.2017 18:54 8,2 C 6,1 C 3,3 C 70 % 0 lf 1025,8 hPa 0,0 l/m 0 min 0 min 0 W/m 2,1 km/h (1 Bft) 95,65 %
10.03.2017 18:56 8,2 C 6,1 C 3,3 C 70 % 0 lf 1025,9 hPa 0,0 l/m 0 min 0 min 0 W/m 2,1 km/h (1 Bft) 97,87 %
10.03.2017 18:58 8,1 C 6,1 C 3,3 C 70 % 0 lf 1025,9 hPa 0,0 l/m 0 min 0 min 0 W/m 2,1 km/h (1 Bft) 97,87 %
10.03.2017 19:00 8,1 C 6,1 C 2,8 C 71 % 0 lf 1025,9 hPa 0,0 l/m 0 min 0 min 0 W/m 4,2 km/h (1 Bft) 97,87 %
10.03.2017 19:02 8,1 C 6,1 C 2,8 C 71 % 0 lf 1025,9 hPa 0,0 l/m 0 min 0 min 0 W/m 4,2 km/h (1 Bft) 95,74 %
10.03.2017 19:04 8,0 C 6,1 C 2,8 C 71 % 0 lf 1025,9 hPa 0,0 l/m 0 min 0 min 0 W/m 2,1 km/h (1 Bft) 93,62 %
10.03.2017 19:06 7,9 C 5,6 C 2,8 C 71 % 0 lf 1025,8 hPa 0,0 l/m 0 min 0 min 0 W/m 2,1 km/h (1 Bft) 93,48 %
10.03.2017 19:08 7,9 C 5,6 C 2,8 C 71 % 0 lf 1025,8 hPa 0,0 l/m 0 min 0 min 0 W/m 2,1 km/h (1 Bft) 93,62 %
10.03.2017 19:10 7,8 C 5,6 C 2,8 C 72 % 0 lf 1025,9 hPa 0,0 l/m 0 min 0 min 0 W/m 2,1 km/h (1 Bft) 91,49 %
10.03.2017 19:11 7,8 C 5,6 C 2,8 C 72 % 0 lf 1025,9 hPa 0,0 l/m 0 min 0 min 0 W/m 0,0 km/h (0 Bft) 100,00 %
10.03.2017 19:12 7,8 C 5,6 C 2,8 C 72 % 0 lf 1025,8 hPa 0,0 l/m 0 min 0 min 0 W/m 2,1 km/h (1 Bft) 95,65 %
10.03.2017 19:14 7,7 C 5,6 C 2,2 C 72 % 0 lf 1025,8 hPa 0,0 l/m 0 min 0 min 0 W/m 2,1 km/h (1 Bft) 97,87 %
10.03.2017 19:16 7,6 C 5,0 C 2,2 C 72 % 0 lf 1025,8 hPa 0,0 l/m 0 min 0 min 0 W/m 0,0 km/h (0 Bft) 95,74 %
10.03.2017 19:18 7,6 C 5,0 C 2,2 C 72 % 0 lf 1025,8 hPa 0,0 l/m 0 min 0 min 0 W/m 0,0 km/h (0 Bft) 97,87 %
10.03.2017 19:20 7,5 C 5,0 C 2,2 C 72 % 0 lf 1025,8 hPa 0,0 l/m 0 min 0 min 0 W/m 0,0 km/h (0 Bft) 97,87 %
10.03.2017 19:22 7,4 C 5,0 C 2,2 C 73 % 0 lf 1025,7 hPa 0,0 l/m 0 min 0 min 0 W/m 0,0 km/h (0 Bft) 93,62 %
10.03.2017 19:24 7,4 C 5,0 C 2,2 C 73 % 0 lf 1025,7 hPa 0,0 l/m 0 min 0 min 0 W/m 0,0 km/h (0 Bft) 93,62 %
10.03.2017 19:26 7,3 C 5,0 C 2,2 C 73 % 0 lf 1025,8 hPa 0,0 l/m 0 min 0 min 0 W/m 0,0 km/h (0 Bft) 89,13 %
10.03.2017 19:28 7,2 C 5,0 C 2,2 C 73 % 0 lf 1025,7 hPa 0,0 l/m 0 min 0 min 0 W/m 0,0 km/h (0 Bft) 97,87 %
10.03.2017 19:30 7,2 C 5,0 C 2,2 C 73 % 0 lf 1025,7 hPa 0,0 l/m 0 min 0 min 0 W/m 0,0 km/h (0 Bft) 93,62 %
10.03.2017 19:32 7,1 C 5,0 C 2,2 C 73 % 0 lf 1025,7 hPa 0,0 l/m 0 min 0 min 0 W/m 0,0 km/h (0 Bft) 95,92 %
10.03.2017 19:34 7,1 C 5,0 C 2,2 C 73 % 0 lf 1025,8 hPa 0,0 l/m 0 min 0 min 0 W/m 0,0 km/h (0 Bft) 91,49 %
10.03.2017 19:36 7,0 C 5,0 C 2,2 C 73 % 0 lf 1025,8 hPa 0,0 l/m 0 min 0 min 0 W/m 0,0 km/h (0 Bft) 95,74 %
10.03.2017 19:38 6,9 C 5,0 C 2,2 C 73 % 0 lf 1025,8 hPa 0,0 l/m 0 min 0 min 0 W/m 0,0 km/h (0 Bft) 95,65 %
10.03.2017 19:40 6,9 C 5,0 C 2,2 C 74 % 0 lf 1025,8 hPa 0,0 l/m 0 min 0 min 0 W/m 0,0 km/h (0 Bft) 95,74 %
10.03.2017 19:42 6,8 C 4,4 C 2,2 C 74 % 0 lf 1025,8 hPa 0,0 l/m 0 min 0 min 0 W/m 0,0 km/h (0 Bft) 97,87 %
10.03.2017 19:44 6,7 C 4,4 C 2,2 C 74 % 0 lf 1025,7 hPa 0,0 l/m 0 min 0 min 0 W/m 0,0 km/h (0 Bft) 97,87 %
10.03.2017 19:46 6,7 C 4,4 C 1,7 C 74 % 0 lf 1025,7 hPa 0,0 l/m 0 min 0 min 0 W/m 0,0 km/h (0 Bft) 91,49 %
10.03.2017 19:48 6,6 C 4,4 C 1,7 C 74 % 0 lf 1025,6 hPa 0,0 l/m 0 min 0 min 0 W/m 0,0 km/h (0 Bft) 93,48 %
10.03.2017 19:50 6,6 C 4,4 C 1,7 C 75 % 0 lf 1025,7 hPa 0,0 l/m 0 min 0 min 4 W/m 0,0 km/h (0 Bft) 93,62 %
10.03.2017 19:52 6,5 C 3,9 C 1,7 C 75 % 0 lf 1025,7 hPa 0,0 l/m 0 min 0 min 0 W/m 0,0 km/h (0 Bft) 93,75 %
10.03.2017 19:54 6,4 C 3,9 C 1,7 C 76 % 0 lf 1025,7 hPa 0,0 l/m 0 min 0 min 0 W/m 0,0 km/h (0 Bft) 95,74 %
10.03.2017 19:56 6,4 C 3,9 C 1,7 C 76 % 0 lf 1025,7 hPa 0,0 l/m 0 min 0 min 2 W/m 0,0 km/h (0 Bft) 89,13 %
10.03.2017 19:58 6,3 C 3,9 C 1,7 C 76 % 0 lf 1025,7 hPa 0,0 l/m 0 min 0 min 0 W/m 0,0 km/h (0 Bft) 95,74 %
10.03.2017 20:00 6,3 C 3,9 C 1,7 C 76 % 0 lf 1025,7 hPa 0,0 l/m 0 min 0 min 5 W/m 0,0 km/h (0 Bft) 93,62 %
10.03.2017 20:02 6,2 C 3,9 C 1,7 C 76 % 0 lf 1025,7 hPa 0,0 l/m 0 min 0 min 0 W/m 0,0 km/h (0 Bft) 88,57 %
10.03.2017 20:04 6,2 C 3,9 C 1,7 C 76 % 0 lf 1025,7 hPa 0,0 l/m 0 min 0 min 0 W/m 0,0 km/h (0 Bft) 95,74 %
10.03.2017 20:06 6,1 C 3,9 C 1,1 C 76 % 0 lf 1025,7 hPa 0,0 l/m 0 min 0 min 0 W/m 0,0 km/h (0 Bft) 93,62 %
10.03.2017 20:08 6,1 C 3,9 C 1,1 C 76 % 0 lf 1025,7 hPa 0,0 l/m 0 min 0 min 0 W/m 0,0 km/h (0 Bft) 93,62 %
10.03.2017 20:10 6,0 C 3,9 C 1,1 C 77 % 0 lf 1025,7 hPa 0,0 l/m 0 min 0 min 0 W/m 0,0 km/h (0 Bft) 95,74 %
10.03.2017 20:12 5,9 C 3,9 C 1,1 C 77 % 0 lf 1025,7 hPa 0,0 l/m 0 min 0 min 0 W/m 0,0 km/h (0 Bft) 93,48 %
10.03.2017 20:14 5,9 C 3,9 C 1,1 C 77 % 0 lf 1025,8 hPa 0,0 l/m 0 min 0 min 0 W/m 0,0 km/h (0 Bft) 91,49 %
10.03.2017 20:16 5,8 C 3,3 C 1,1 C 77 % 0 lf 1025,8 hPa 0,0 l/m 0 min 0 min 0 W/m 0,0 km/h (0 Bft) 93,62 %
10.03.2017 20:18 5,8 C 3,3 C 1,1 C 77 % 0 lf 1025,8 hPa 0,0 l/m 0 min 0 min 0 W/m 0,0 km/h (0 Bft) 93,62 %
10.03.2017 20:20 5,7 C 3,3 C 1,1 C 77 % 0 lf 1025,7 hPa 0,0 l/m 0 min 0 min 0 W/m 0,0 km/h (0 Bft) 91,49 %
10.03.2017 20:22 5,7 C 3,9 C 1,1 C 77 % 0 lf 1025,7 hPa 0,0 l/m 0 min 0 min 0 W/m 0,0 km/h (0 Bft) 95,74 %
10.03.2017 20:24 5,6 C 3,9 C 1,1 C 77 % 0 lf 1025,8 hPa 0,0 l/m 0 min 0 min 4 W/m 0,0 km/h (0 Bft) 95,65 %
10.03.2017 20:26 5,6 C 3,9 C 1,1 C 78 % 0 lf 1025,7 hPa 0,0 l/m 0 min 0 min 4 W/m 0,0 km/h (0 Bft) 93,62 %
10.03.2017 20:28 5,5 C 3,9 C 1,1 C 78 % 0 lf 1025,7 hPa 0,0 l/m 0 min 0 min 0 W/m 0,0 km/h (0 Bft) 95,74 %
10.03.2017 20:30 5,4 C 3,3 C 1,1 C 78 % 0 lf 1025,7 hPa 0,0 l/m 0 min 0 min 0 W/m 0,0 km/h (0 Bft) 91,49 %
10.03.2017 20:32 5,4 C 3,9 C 1,1 C 78 % 0 lf 1025,7 hPa 0,0 l/m 0 min 0 min 3 W/m 0,0 km/h (0 Bft) 95,74 %
10.03.2017 20:34 5,3 C 3,3 C 1,1 C 78 % 0 lf 1025,7 hPa 0,0 l/m 0 min 0 min 0 W/m 0,0 km/h (0 Bft) 95,65 %
10.03.2017 20:36 5,3 C 3,3 C 1,1 C 78 % 0 lf 1025,7 hPa 0,0 l/m 0 min 0 min 2 W/m 0,0 km/h (0 Bft) 91,49 %
10.03.2017 20:38 5,2 C 3,3 C 1,1 C 78 % 0 lf 1025,7 hPa 0,0 l/m 0 min 0 min 0 W/m 0,0 km/h (0 Bft) 95,74 %
10.03.2017 20:40 5,2 C 3,3 C 1,1 C 79 % 0 lf 1025,7 hPa 0,0 l/m 0 min 0 min 0 W/m 0,0 km/h (0 Bft) 97,87 %
10.03.2017 20:42 5,1 C 3,9 C 1,1 C 79 % 0 lf 1025,7 hPa 0,0 l/m 0 min 0 min 3 W/m 0,0 km/h (0 Bft) 95,74 %
10.03.2017 20:44 5,1 C 3,9 C 1,1 C 79 % 0 lf 1025,7 hPa 0,0 l/m 0 min 0 min 0 W/m 0,0 km/h (0 Bft) 97,87 %
10.03.2017 20:46 5,1 C 3,9 C 1,1 C 80 % 0 lf 1025,7 hPa 0,0 l/m 0 min 0 min 0 W/m 0,0 km/h (0 Bft) 100,00 %
10.03.2017 20:48 5,0 C 3,3 C 1,1 C 80 % 0 lf 1025,7 hPa 0,0 l/m 0 min 0 min 0 W/m 0,0 km/h (0 Bft) 95,74 %
10.03.2017 20:50 4,9 C 3,3 C 0,6 C 80 % 0 lf 1025,7 hPa 0,0 l/m 0 min 0 min 5 W/m 2,1 km/h (1 Bft) 100,00 %
10.03.2017 20:52 4,9 C 3,3 C 0,6 C 80 % 0 lf 1025,7 hPa 0,0 l/m 0 min 0 min 0 W/m 0,0 km/h (0 Bft) 95,74 %
10.03.2017 20:54 4,8 C 3,3 C 0,6 C 80 % 0 lf 1025,7 hPa 0,0 l/m 0 min 0 min 5 W/m 0,0 km/h (0 Bft) 97,87 %
10.03.2017 20:56 4,8 C 2,8 C 0,6 C 80 % 0 lf 1025,7 hPa 0,0 l/m 0 min 0 min 0 W/m 0,0 km/h (0 Bft) 100,00 %
10.03.2017 20:58 4,7 C 2,8 C 0,6 C 80 % 0 lf 1025,7 hPa 0,0 l/m 0 min 0 min 4 W/m 0,0 km/h (0 Bft) 97,83 %
10.03.2017 21:00 4,7 C 2,8 C 0,6 C 80 % 0 lf 1025,7 hPa 0,0 l/m 0 min 0 min 0 W/m 0,0 km/h (0 Bft) 97,87 %
10.03.2017 21:02 4,7 C 2,8 C 0,6 C 80 % 0 lf 1025,7 hPa 0,0 l/m 0 min 0 min 0 W/m 0,0 km/h (0 Bft) 96,23 %
10.03.2017 21:04 4,6 C 2,8 C 0,6 C 80 % 0 lf 1025,7 hPa 0,0 l/m 0 min 0 min 2 W/m 0,0 km/h (0 Bft) 100,00 %
10.03.2017 21:06 4,6 C 2,8 C 0,6 C 80 % 0 lf 1025,7 hPa 0,0 l/m 0 min 0 min 0 W/m 0,0 km/h (0 Bft) 97,87 %
10.03.2017 21:08 4,5 C 2,8 C 0,6 C 80 % 0 lf 1025,7 hPa 0,0 l/m 0 min 0 min 4 W/m 0,0 km/h (0 Bft) 97,87 %
10.03.2017 21:10 4,4 C 2,8 C 0,6 C 80 % 0 lf 1025,6 hPa 0,0 l/m 0 min 0 min 5 W/m 0,0 km/h (0 Bft) 97,87 %
10.03.2017 21:12 4,4 C 2,8 C 0,6 C 81 % 0 lf 1025,6 hPa 0,0 l/m 0 min 0 min 5 W/m 0,0 km/h (0 Bft) 100,00 %
10.03.2017 21:14 4,4 C 2,2 C 0,6 C 81 % 0 lf 1025,6 hPa 0,0 l/m 0 min 0 min 5 W/m 0,0 km/h (0 Bft) 100,00 %
10.03.2017 21:16 4,3 C 2,2 C 0,6 C 81 % 0 lf 1025,6 hPa 0,0 l/m 0 min 0 min 0 W/m 0,0 km/h (0 Bft) 95,74 %
10.03.2017 21:18 4,3 C 2,8 C 0,6 C 81 % 0 lf 1025,6 hPa 0,0 l/m 0 min 0 min 0 W/m 0,0 km/h (0 Bft) 100,00 %
10.03.2017 21:20 4,2 C 2,2 C 0,6 C 81 % 0 lf 1025,5 hPa 0,0 l/m 0 min 0 min 0 W/m 0,0 km/h (0 Bft) 100,00 %
10.03.2017 21:22 4,2 C 2,2 C 0,6 C 81 % 0 lf 1025,5 hPa 0,0 l/m 0 min 0 min 0 W/m 0,0 km/h (0 Bft) 100,00 %
10.03.2017 21:24 4,2 C 2,2 C 0,6 C 81 % 0 lf 1025,6 hPa 0,0 l/m 0 min 0 min 0 W/m 0,0 km/h (0 Bft) 100,00 %
10.03.2017 21:26 4,1 C 2,2 C 0,6 C 81 % 0 lf 1025,5 hPa 0,0 l/m 0 min 0 min 0 W/m 0,0 km/h (0 Bft) 97,87 %
10.03.2017 21:28 4,1 C 2,2 C 0,6 C 81 % 0 lf 1025,4 hPa 0,0 l/m 0 min 0 min 0 W/m 0,0 km/h (0 Bft) 96,00 %
10.03.2017 21:30 4,1 C 2,2 C 0,6 C 81 % 0 lf 1025,4 hPa 0,0 l/m 0 min 0 min 0 W/m 0,0 km/h (0 Bft) 95,74 %
10.03.2017 21:32 4,0 C 2,2 C 0,6 C 82 % 0 lf 1025,4 hPa 0,0 l/m 0 min 0 min 4 W/m 0,0 km/h (0 Bft) 100,00 %
10.03.2017 21:34 4,0 C 2,8 C 1,1 C 82 % 0 lf 1025,3 hPa 0,0 l/m 0 min 0 min 0 W/m 0,0 km/h (0 Bft) 100,00 %
10.03.2017 21:36 3,9 C 2,8 C 1,1 C 82 % 0 lf 1025,3 hPa 0,0 l/m 0 min 0 min 0 W/m 0,0 km/h (0 Bft) 100,00 %
10.03.2017 21:38 3,9 C 2,8 C 1,1 C 82 % 0 lf 1025,3 hPa 0,0 l/m 0 min 0 min 0 W/m 0,0 km/h (0 Bft) 100,00 %
10.03.2017 21:40 3,9 C 3,3 C 1,1 C 82 % 0 lf 1025,3 hPa 0,0 l/m 0 min 0 min 0 W/m 0,0 km/h (0 Bft) 93,62 %
10.03.2017 21:42 3,9 C 3,3 C 1,7 C 83 % 0 lf 1025,3 hPa 0,0 l/m 0 min 0 min 1 W/m 0,0 km/h (0 Bft) 100,00 %
10.03.2017 21:44 3,9 C 3,3 C 1,7 C 83 % 0 lf 1025,3 hPa 0,0 l/m 0 min 0 min 1 W/m 0,0 km/h (0 Bft) 97,87 %
10.03.2017 21:46 3,8 C 3,3 C 1,7 C 84 % 0 lf 1025,3 hPa 0,0 l/m 0 min 0 min 0 W/m 0,0 km/h (0 Bft) 100,00 %
10.03.2017 21:48 3,8 C 3,3 C 1,7 C 84 % 0 lf 1025,3 hPa 0,0 l/m 0 min 0 min 0 W/m 0,0 km/h (0 Bft) 97,87 %
10.03.2017 21:50 3,8 C 3,3 C 1,7 C 84 % 0 lf 1025,3 hPa 0,0 l/m 0 min 0 min 0 W/m 0,0 km/h (0 Bft) 100,00 %
10.03.2017 21:52 3,8 C 3,3 C 1,7 C 84 % 0 lf 1025,3 hPa 0,0 l/m 0 min 0 min 0 W/m 0,0 km/h (0 Bft) 97,87 %
10.03.2017 21:54 3,8 C 3,3 C 1,7 C 85 % 0 lf 1025,3 hPa 0,0 l/m 0 min 0 min 0 W/m 0,0 km/h (0 Bft) 93,62 %
10.03.2017 21:56 3,8 C 3,3 C 2,2 C 85 % 0 lf 1025,3 hPa 0,0 l/m 0 min 0 min 5 W/m 0,0 km/h (0 Bft) 94,29 %
10.03.2017 21:58 3,8 C 3,3 C 2,2 C 85 % 0 lf 1025,3 hPa 0,0 l/m 0 min 0 min 5 W/m 0,0 km/h (0 Bft) 91,49 %
10.03.2017 22:00 3,8 C 3,3 C 2,2 C 85 % 0 lf 1025,3 hPa 0,0 l/m 0 min 0 min 5 W/m 0,0 km/h (0 Bft) 91,49 %
10.03.2017 22:02 3,8 C 3,3 C 2,2 C 86 % 0 lf 1025,3 hPa 0,0 l/m 0 min 0 min 5 W/m 0,0 km/h (0 Bft) 95,74 %
10.03.2017 22:04 3,8 C 3,9 C 2,2 C 86 % 0 lf 1025,3 hPa 0,0 l/m 0 min 0 min 5 W/m 0,0 km/h (0 Bft) 95,74 %
10.03.2017 22:06 3,8 C 3,9 C 2,2 C 86 % 0 lf 1025,3 hPa 0,0 l/m 0 min 0 min 5 W/m 0,0 km/h (0 Bft) 94,55 %
10.03.2017 22:08 3,8 C 3,9 C 2,2 C 86 % 0 lf 1025,3 hPa 0,0 l/m 0 min 0 min 5 W/m 0,0 km/h (0 Bft) 93,62 %
10.03.2017 22:10 3,8 C 3,9 C 2,2 C 86 % 0 lf 1025,3 hPa 0,0 l/m 0 min 0 min 5 W/m 0,0 km/h (0 Bft) 93,48 %
10.03.2017 22:12 3,8 C 3,9 C 2,2 C 87 % 0 lf 1025,3 hPa 0,0 l/m 0 min 0 min 0 W/m 0,0 km/h (0 Bft) 95,74 %
10.03.2017 22:14 3,8 C 3,9 C 2,2 C 87 % 0 lf 1025,3 hPa 0,0 l/m 0 min 0 min 5 W/m 0,0 km/h (0 Bft) 93,62 %
10.03.2017 22:16 3,8 C 4,4 C 2,2 C 87 % 0 lf 1025,2 hPa 0,0 l/m 0 min 0 min 5 W/m 0,0 km/h (0 Bft) 91,49 %
10.03.2017 22:18 3,8 C 4,4 C 2,2 C 87 % 0 lf 1025,2 hPa 0,0 l/m 0 min 0 min 5 W/m 0,0 km/h (0 Bft) 93,62 %
10.03.2017 22:20 3,8 C 4,4 C 2,2 C 88 % 0 lf 1025,2 hPa 0,0 l/m 0 min 0 min 5 W/m 0,0 km/h (0 Bft) 93,62 %
10.03.2017 22:22 3,8 C 3,9 C 2,2 C 87 % 0 lf 1025,2 hPa 0,0 l/m 0 min 0 min 5 W/m 0,0 km/h (0 Bft) 89,13 %
10.03.2017 22:24 3,8 C 3,9 C 2,2 C 88 % 0 lf 1025,2 hPa 0,0 l/m 0 min 0 min 5 W/m 0,0 km/h (0 Bft) 95,74 %
10.03.2017 22:26 3,8 C 3,9 C 2,2 C 88 % 0 lf 1025,2 hPa 0,0 l/m 0 min 0 min 5 W/m 0,0 km/h (0 Bft) 95,74 %
10.03.2017 22:28 3,8 C 3,9 C 2,2 C 88 % 0 lf 1025,2 hPa 0,0 l/m 0 min 0 min 0 W/m 0,0 km/h (0 Bft) 97,87 %
10.03.2017 22:30 3,9 C 3,9 C 2,2 C 88 % 0 lf 1025,2 hPa 0,0 l/m 0 min 0 min 0 W/m 0,0 km/h (0 Bft) 95,74 %
10.03.2017 22:32 3,9 C 3,9 C 2,2 C 88 % 0 lf 1025,1 hPa 0,0 l/m 0 min 0 min 0 W/m 0,0 km/h (0 Bft) 95,92 %
10.03.2017 22:34 3,9 C 3,9 C 2,2 C 88 % 0 lf 1025,1 hPa 0,0 l/m 0 min 0 min 0 W/m 0,0 km/h (0 Bft) 100,00 %
10.03.2017 22:36 3,9 C 3,9 C 2,2 C 88 % 0 lf 1025,1 hPa 0,0 l/m 0 min 0 min 0 W/m 0,0 km/h (0 Bft) 100,00 %
10.03.2017 22:38 3,9 C 3,3 C 2,2 C 88 % 0 lf 1025,1 hPa 0,0 l/m 0 min 0 min 0 W/m 0,0 km/h (0 Bft) 100,00 %
10.03.2017 22:40 3,9 C 3,3 C 2,2 C 88 % 0 lf 1025,1 hPa 0,0 l/m 0 min 0 min 0 W/m 0,0 km/h (0 Bft) 100,00 %
10.03.2017 22:42 3,9 C 3,3 C 1,7 C 88 % 0 lf 1025,0 hPa 0,0 l/m 0 min 0 min 5 W/m 0,0 km/h (0 Bft) 100,00 %
10.03.2017 22:44 3,9 C 3,3 C 1,7 C 88 % 0 lf 1025,0 hPa 0,0 l/m 0 min 0 min 5 W/m 0,0 km/h (0 Bft) 97,87 %
10.03.2017 22:46 3,9 C 3,3 C 1,7 C 88 % 0 lf 1025,0 hPa 0,0 l/m 0 min 0 min 5 W/m 0,0 km/h (0 Bft) 100,00 %
10.03.2017 22:48 3,9 C 3,3 C 1,7 C 88 % 0 lf 1025,1 hPa 0,0 l/m 0 min 0 min 5 W/m 0,0 km/h (0 Bft) 97,87 %
10.03.2017 22:50 3,9 C 3,3 C 1,7 C 89 % 0 lf 1025,0 hPa 0,0 l/m 0 min 0 min 4 W/m 0,0 km/h (0 Bft) 97,87 %
10.03.2017 22:52 3,9 C 3,3 C 1,7 C 89 % 0 lf 1024,9 hPa 0,0 l/m 0 min 0 min 0 W/m 0,0 km/h (0 Bft) 97,83 %
10.03.2017 22:54 3,9 C 3,3 C 1,7 C 89 % 0 lf 1024,9 hPa 0,0 l/m 0 min 0 min 0 W/m 0,0 km/h (0 Bft) 95,74 %
10.03.2017 22:56 3,9 C 3,3 C 1,7 C 89 % 0 lf 1025,0 hPa 0,0 l/m 0 min 0 min 0 W/m 0,0 km/h (0 Bft) 100,00 %
10.03.2017 22:58 3,9 C 3,3 C 1,7 C 89 % 0 lf 1025,1 hPa 0,0 l/m 0 min 0 min 0 W/m 0,0 km/h (0 Bft) 97,87 %
10.03.2017 23:00 3,8 C 3,3 C 1,7 C 89 % 0 lf 1025,0 hPa 0,0 l/m 0 min 0 min 0 W/m 0,0 km/h (0 Bft) 95,74 %
10.03.2017 23:02 3,9 C 3,3 C 1,7 C 89 % 0 lf 1025,0 hPa 0,0 l/m 0 min 0 min 0 W/m 0,0 km/h (0 Bft) 97,30 %
10.03.2017 23:04 3,8 C 3,3 C 1,7 C 89 % 0 lf 1025,1 hPa 0,0 l/m 0 min 0 min 0 W/m 0,0 km/h (0 Bft) 97,87 %
10.03.2017 23:06 3,8 C 2,8 C 1,7 C 89 % 0 lf 1025,1 hPa 0,0 l/m 0 min 0 min 0 W/m 0,0 km/h (0 Bft) 100,00 %
10.03.2017 23:08 3,8 C 2,8 C 1,1 C 89 % 0 lf 1025,0 hPa 0,0 l/m 0 min 0 min 0 W/m 0,0 km/h (0 Bft) 97,87 %
10.03.2017 23:10 3,8 C 2,8 C 1,1 C 89 % 0 lf 1025,0 hPa 0,0 l/m 0 min 0 min 0 W/m 0,0 km/h (0 Bft) 95,65 %
10.03.2017 23:12 3,8 C 2,8 C 1,1 C 89 % 0 lf 1025,1 hPa 0,0 l/m 0 min 0 min 0 W/m 0,0 km/h (0 Bft) 100,00 %
10.03.2017 23:14 3,8 C 2,8 C 1,1 C 89 % 0 lf 1025,0 hPa 0,0 l/m 0 min 0 min 0 W/m 0,0 km/h (0 Bft) 97,87 %
10.03.2017 23:16 3,8 C 2,8 C 1,1 C 89 % 0 lf 1025,0 hPa 0,0 l/m 0 min 0 min 0 W/m 0,0 km/h (0 Bft) 95,74 %
10.03.2017 23:18 3,8 C 2,8 C 1,1 C 89 % 0 lf 1025,0 hPa 0,0 l/m 0 min 0 min 0 W/m 0,0 km/h (0 Bft) 95,74 %
10.03.2017 23:20 3,8 C 3,3 C 1,1 C 89 % 0 lf 1025,0 hPa 0,0 l/m 0 min 0 min 0 W/m 0,0 km/h (0 Bft) 97,87 %
10.03.2017 23:22 3,8 C 3,3 C 1,1 C 89 % 0 lf 1024,9 hPa 0,0 l/m 0 min 0 min 0 W/m 0,0 km/h (0 Bft) 97,83 %
10.03.2017 23:24 3,7 C 3,3 C 1,1 C 89 % 0 lf 1024,9 hPa 0,0 l/m 0 min 0 min 0 W/m 0,0 km/h (0 Bft) 95,74 %
10.03.2017 23:26 3,7 C 3,3 C 1,1 C 89 % 0 lf 1024,8 hPa 0,0 l/m 0 min 0 min 0 W/m 0,0 km/h (0 Bft) 96,00 %
10.03.2017 23:28 3,7 C 3,3 C 1,1 C 89 % 0 lf 1024,8 hPa 0,0 l/m 0 min 0 min 0 W/m 0,0 km/h (0 Bft) 93,62 %
10.03.2017 23:30 3,7 C 2,8 C 1,1 C 89 % 0 lf 1024,8 hPa 0,0 l/m 0 min 0 min 0 W/m 0,0 km/h (0 Bft) 95,74 %
10.03.2017 23:32 3,7 C 2,8 C 1,1 C 89 % 0 lf 1024,8 hPa 0,0 l/m 0 min 0 min 0 W/m 0,0 km/h (0 Bft) 95,65 %
10.03.2017 23:34 3,7 C 2,8 C 1,1 C 89 % 0 lf 1024,8 hPa 0,0 l/m 0 min 0 min 0 W/m 0,0 km/h (0 Bft) 91,49 %
10.03.2017 23:36 3,7 C 2,8 C 1,1 C 89 % 0 lf 1024,8 hPa 0,0 l/m 0 min 0 min 0 W/m 0,0 km/h (0 Bft) 89,36 %
10.03.2017 23:38 3,7 C 2,8 C 1,1 C 89 % 0 lf 1024,7 hPa 0,0 l/m 0 min 0 min 0 W/m 0,0 km/h (0 Bft) 97,87 %
10.03.2017 23:40 3,6 C 2,8 C 1,1 C 89 % 0 lf 1024,7 hPa 0,0 l/m 0 min 0 min 0 W/m 0,0 km/h (0 Bft) 93,62 %
10.03.2017 23:42 3,6 C 2,8 C 0,6 C 89 % 0 lf 1024,7 hPa 0,0 l/m 0 min 0 min 0 W/m 0,0 km/h (0 Bft) 95,74 %
10.03.2017 23:44 3,6 C 3,3 C 0,6 C 89 % 0 lf 1024,8 hPa 0,0 l/m 0 min 0 min 0 W/m 0,0 km/h (0 Bft) 91,30 %
10.03.2017 23:46 3,6 C 3,3 C 0,6 C 89 % 0 lf 1024,8 hPa 0,0 l/m 0 min 0 min 0 W/m 0,0 km/h (0 Bft) 93,62 %
10.03.2017 23:48 3,6 C 3,3 C 0,6 C 89 % 0 lf 1024,8 hPa 0,0 l/m 0 min 0 min 0 W/m 0,0 km/h (0 Bft) 89,36 %
10.03.2017 23:50 3,6 C 3,3 C 0,6 C 89 % 0 lf 1024,8 hPa 0,0 l/m 0 min 0 min 0 W/m 0,0 km/h (0 Bft) 93,62 %
10.03.2017 23:52 3,5 C 3,3 C 0,6 C 89 % 0 lf 1024,8 hPa 0,0 l/m 0 min 0 min 0 W/m 0,0 km/h (0 Bft) 89,36 %
10.03.2017 23:54 3,5 C 2,8 C 0,6 C 89 % 1 lf 1024,8 hPa 0,0 l/m 0 min 0 min 0 W/m 0,0 km/h (0 Bft) 91,49 %
10.03.2017 23:56 3,5 C 2,8 C 0,6 C 89 % 1 lf 1024,8 hPa 0,0 l/m 0 min 0 min 0 W/m 0,0 km/h (0 Bft) 91,30 %
10.03.2017 23:58 3,4 C 2,8 C 0,6 C 89 % 1 lf 1024,8 hPa 0,0 l/m 0 min 0 min 0 W/m 0,0 km/h (0 Bft) 93,62 %
_ Min-Zeit 07:04 06:26 06:08 13:48 00:00 00:00 - - - - 06:02 09:16
Minimum _ 3,3 C 2,2 C 0,6 C 59 % 0 lf 1024,1 hPa - - - - 0,0 km/h (0 Bft) 27,59 %
_ Max-Zeit 13:10 11:22 10:42 09:04 06:04 10:58 00:00 07:44 00:00 12:48 01:10 00:38
Maximum _ 11,9 C 25,0 C 15,0 C 95 % 1 lf 1028,5 hPa 0,0 l/m 2 min 0 min 796 W/m 20,9 km/h
NW (4 Bft)
100,00 %
Durchschnitt _ 7,0 C 9,2 C 5,3 C 80 % 0 lf 1026,5 hPa #0,0 l/m #8:01 h #0 min. 276 W/m 5,6 km/h (1 Bft) 95,75 %
© 2017 W. Hausmann